GFSNW_sfc_dewp_000.txt.gz
Dewpoint
53 52 52 52 52 50 50 52 41 51 52 41 42 39 32 34 31 33 33 33 31 30 31 30 29 29 31 30 30 31 33 34 31 30 31 29 30 30 28 30 27 29 29 27
53 52 52 52 52 49 50 44 43 50 51 44 44 37 35 36 32 33 32 33 34 34 33 32 31 32 35 32 31 35 35 34 31 27 27 29 28 28 29 32 34 32 31 28
53 52 52 52 52 50 49 43 46 47 45 43 39 37 37 37 39 37 36 35 37 36 35 35 34 34 35 37 36 41 39 35 34 29 28 30 31 31 31 32 33 32 31 30
52 52 52 52 52 49 48 43 44 41 45 43 41 40 38 37 37 38 36 36 36 35 35 34 34 34 34 36 39 39 38 35 33 33 32 31 31 31 31 31 32 32 32 29
52 52 52 51 51 49 46 45 46 44 43 39 36 38 37 36 35 35 34 36 37 36 35 35 35 35 36 36 37 37 36 36 35 34 33 32 32 32 31 31 31 30 31 32
52 52 51 51 51 50 46 45 43 49 39 39 39 37 36 35 37 37 37 38 38 40 38 38 38 39 39 38 38 38 38 37 36 32 31 32 32 34 31 30 31 32 31 32
52 50 50 51 49 50 50 48 45 40 44 41 38 33 37 37 39 37 38 41 42 39 41 42 41 40 39 39 38 39 39 36 36 33 34 28 28 28 27 28 29 29 29 31
51 51 52 51 50 48 52 48 48 49 37 43 38 38 38 39 40 39 40 40 41 43 42 42 37 38 37 35 34 36 39 39 35 32 32 30 28 27 29 29 28 28 28 29
50 51 51 50 50 49 52 51 50 48 37 43 39 40 40 42 42 42 41 42 44 44 45 39 34 32 33 30 31 32 33 39 36 36 31 28 29 29 27 27 28 30 30 35
50 50 50 50 50 51 54 55 53 51 46 48 43 43 43 42 42 42 42 41 43 43 37 35 34 34 32 31 34 34 35 34 32 32 31 33 31 28 30 30 33 36 37 37
50 50 50 50 50 50 54 54 54 52 45 47 45 45 43 43 43 43 43 42 42 40 35 35 36 34 37 36 33 36 34 34 32 34 32 30 31 27 31 35 40 38 39 39
50 50 50 50 50 50 51 52 55 53 48 48 50 48 47 46 45 43 45 42 40 43 41 38 38 33 34 35 32 35 33 36 36 33 34 36 35 35 37 40 39 39 40 40
49 49 50 50 50 50 51 53 53 51 38 46 47 48 49 49 49 49 45 42 44 43 45 43 36 34 37 34 35 37 36 37 36 37 36 35 37 39 40 40 40 39 41 42
49 49 49 49 50 50 50 50 53 52 43 34 43 49 48 48 49 48 49 47 48 47 48 36 35 35 40 37 37 37 37 38 37 38 39 38 38 38 39 39 40 40 40 42
49 49 49 50 50 50 51 51 52 53 48 37 41 44 46 47 48 48 48 48 48 47 36 34 36 39 39 39 39 37 40 38 36 37 38 39 40 38 37 38 39 40 42 41
48 49 49 49 49 49 48 43 48 51 50 38 34 42 42 45 47 46 45 47 48 46 41 36 40 42 39 33 35 38 37 37 37 37 38 38 37 38 38 39 41 41 40 41
48 48 48 49 48 49 45 41 46 48 50 35 33 35 39 38 41 43 44 46 47 45 40 36 40 40 41 34 34 36 37 35 35 37 38 38 37 38 40 39 35 34 35 38
46 47 47 47 47 46 44 47 48 49 44 37 32 35 39 39 39 39 41 43 43 42 42 42 40 41 38 35 34 33 30 31 33 34 36 37 38 36 29 27 27 28 31 35
46 46 47 46 44 41 42 47 48 48 43 33 33 33 34 38 38 39 40 41 35 43 36 39 39 39 34 32 30 30 31 33 33 36 35 32 26 25 26 27 28 30 33 35
46 45 41 37 41 45 46 44 40 39 36 36 33 37 36 37 38 37 37 36 34 33 36 39 34 33 33 32 33 34 35 35 33 30 26 27 28 27 28 31 34 36 36 36
42 39 38 44 43 43 39 36 33 36 33 36 37 37 36 39 34 35 38 35 34 31 33 34 34 31 29 30 30 30 28 27 26 26 27 27 29 30 32 34 35 35 35 32
41 41 42 41 40 37 33 32 34 32 31 35 35 35 35 38 39 37 36 33 34 29 31 30 27 28 27 26 24 26 26 26 26 25 27 29 31 34 35 35 34 34 32 32
42 38 35 35 34 28 25 24 31 32 36 34 34 34 35 35 34 32 32 30 30 32 29 28 28 26 25 25 25 25 26 28 29 26 28 31 33 33 34 35 34 32 30 28
35 32 27 28 27 27 28 31 33 34 34 34 35 35 35 36 33 34 30 32 31 27 24 27 27 23 23 25 27 27 27 32 30 27 30 35 33 33 30 30 29 30 28 27
33 32 25 27 31 32 32 32 33 35 35 35 34 33 32 32 30 32 31 28 24 25 26 30 30 26 26 28 29 28 34 33 30 27 33 33 32 29 29 27 29 29 27 27
31 32 28 30 30 31 30 30 31 35 34 33 32 27 25 25 30 27 27 25 19 27 34 32 27 26 27 27 32 33 32 29 28 27 31 31 30 30 29 29 30 28 29 28
27 26 32 32 30 29 32 32 34 35 32 30 29 24 21 27 24 23 26 25 30 35 33 29 28 28 28 29 32 33 34 30 29 28 29 30 28 29 28 29 27 27 28 29

GFSNW_sfc_dewp_003.txt.gz
Dewpoint
53 53 52 52 52 50 50 52 43 52 55 44 42 39 31 33 31 32 32 32 31 31 32 32 30 29 32 33 33 32 36 34 34 31 31 29 29 31 31 31 28 31 32 29
53 53 52 52 52 51 51 43 42 52 54 46 46 36 35 35 32 33 33 34 35 35 34 34 32 33 36 34 33 35 35 35 32 27 29 30 30 29 30 32 34 32 32 30
53 53 53 52 52 51 50 43 49 46 46 44 39 37 36 36 38 36 36 35 36 35 35 35 34 34 35 37 37 42 39 35 34 31 31 31 32 30 31 32 36 34 33 32
53 53 53 52 52 51 51 41 44 41 46 44 41 39 36 36 36 38 37 36 35 35 36 35 32 34 35 36 39 38 39 36 34 33 31 30 30 30 30 29 31 32 32 29
53 53 52 52 52 51 48 45 45 45 42 38 37 38 35 34 34 34 34 35 36 36 35 36 35 35 36 35 35 37 37 37 36 35 33 32 32 30 30 29 29 28 30 29
52 53 52 52 51 51 47 46 45 50 42 39 40 38 34 33 35 37 36 36 37 39 39 39 39 40 39 38 38 40 39 38 37 32 32 34 33 34 32 31 29 29 29 31
52 51 50 52 51 50 52 49 46 45 46 44 38 35 35 35 37 39 38 39 41 40 42 42 42 40 38 38 37 38 40 38 35 33 36 29 28 29 28 28 27 28 28 28
52 51 52 52 52 50 53 52 49 51 39 44 39 39 37 38 40 40 39 40 41 45 43 43 38 38 37 36 34 35 37 40 34 34 32 30 30 28 30 30 29 29 29 32
51 51 51 51 51 51 54 54 54 50 39 45 40 39 40 42 43 42 43 42 45 45 46 40 34 33 32 28 28 34 34 41 36 36 31 28 29 29 30 30 28 34 34 35
50 50 50 50 51 51 54 54 58 51 48 49 43 43 43 43 43 43 43 42 44 44 41 34 34 35 31 31 34 36 36 35 33 33 32 32 32 31 31 30 32 39 38 37
50 50 50 50 50 50 54 55 57 53 49 47 48 46 44 43 44 45 42 43 44 44 37 35 37 35 35 34 32 34 32 35 33 34 32 31 31 31 35 39 41 39 39 39
50 50 50 50 50 50 52 55 57 56 53 49 52 49 47 46 44 43 46 43 40 44 43 39 39 35 35 35 31 34 31 35 36 34 35 38 38 37 39 39 40 41 42 39
49 49 50 50 50 50 52 55 56 54 41 48 50 49 49 49 49 49 48 48 44 43 44 47 39 35 40 34 35 37 38 38 38 38 36 35 36 39 41 40 40 38 40 39
49 49 49 49 50 50 51 53 56 54 44 34 43 50 49 49 49 49 48 47 48 47 50 37 35 34 41 37 37 37 37 39 37 38 38 37 39 40 38 39 39 37 39 39
49 49 49 49 50 50 51 52 54 55 50 37 40 46 46 47 47 47 47 47 47 50 40 35 36 42 40 39 39 37 39 38 36 36 40 41 39 35 35 36 38 39 37 33
48 49 49 49 49 49 49 44 49 53 52 40 35 44 44 44 46 46 47 47 48 49 45 37 42 43 40 34 35 38 38 39 40 40 41 39 36 35 36 38 38 30 28 28
48 48 49 49 49 50 46 42 48 50 52 35 35 36 41 39 43 45 45 47 49 46 44 39 41 41 41 35 35 37 36 37 36 38 38 34 35 35 37 31 27 28 27 28
47 47 48 48 48 47 44 47 48 50 43 38 34 35 38 40 41 41 44 44 43 42 42 41 41 41 39 35 36 32 30 29 28 29 33 36 36 33 27 26 26 28 29 33
47 47 47 47 45 41 43 47 48 48 42 33 32 34 34 39 40 40 41 41 34 43 37 41 38 39 36 34 30 29 29 30 34 34 34 30 28 27 26 25 27 31 34 37
46 45 41 37 43 45 46 44 40 37 36 35 33 38 36 38 39 36 37 38 34 32 37 37 38 34 33 31 31 31 33 32 31 31 29 30 28 26 26 27 31 34 36 36
43 41 39 44 44 44 40 36 34 36 33 34 36 38 36 40 36 35 38 34 36 32 31 36 34 31 29 28 31 32 29 27 26 27 27 26 27 26 30 33 34 35 35 34
42 43 44 44 41 38 34 32 35 33 31 35 37 35 35 39 41 38 37 33 35 29 34 32 29 28 27 27 26 26 26 27 26 27 28 27 26 30 34 35 34 36 34 33
42 40 37 37 35 30 27 25 31 33 36 35 34 34 36 37 36 33 33 31 32 35 31 29 29 30 24 22 22 22 23 29 32 29 30 30 30 32 35 35 36 33 35 31
37 34 29 31 29 28 28 30 34 35 34 35 37 36 35 36 34 34 30 32 32 28 25 29 30 24 22 24 26 27 26 35 35 31 32 34 35 35 35 33 34 33 32 31
34 32 27 28 31 35 35 35 36 37 36 37 36 35 33 31 29 31 30 26 24 25 24 30 30 28 28 28 28 26 33 35 34 32 35 35 34 34 34 34 32 33 32 32
34 33 31 33 32 32 32 32 33 37 36 35 35 31 27 25 29 27 25 21 15 26 36 32 26 25 27 27 30 31 30 31 32 32 33 33 34 33 33 34 33 32 32 32
31 31 34 35 32 32 34 35 35 35 34 30 30 24 22 21 23 21 20 23 30 33 31 28 26 27 29 30 30 31 33 33 32 33 34 32 33 34 32 29 29 31 32 32

GFSNW_sfc_dewp_006.txt.gz
Dewpoint
54 53 53 52 52 51 50 57 46 54 56 46 44 38 31 34 31 32 33 33 32 32 32 32 31 30 33 34 34 32 37 35 35 32 32 29 28 30 30 34 31 32 32 30
54 53 53 52 52 51 51 44 44 54 55 47 46 36 33 34 31 34 33 34 35 35 34 34 34 34 37 35 34 36 36 36 31 28 30 30 31 30 30 32 36 32 32 31
54 54 53 53 52 52 52 44 47 47 47 43 39 36 35 35 37 35 35 35 36 35 34 35 34 33 36 38 37 42 39 34 33 31 31 32 32 30 31 31 31 30 31 30
54 54 53 53 52 52 54 42 44 43 48 43 41 38 35 35 35 37 36 35 34 34 36 36 32 33 36 37 41 38 37 36 34 33 32 32 32 31 30 29 29 28 29 28
53 53 53 52 52 51 52 47 45 43 41 38 37 37 34 33 34 32 33 34 34 35 36 35 35 36 37 36 36 39 40 37 37 35 34 32 31 32 32 30 29 28 29 28
53 54 53 52 52 52 48 46 45 52 43 41 41 39 33 32 34 38 35 36 37 38 38 40 40 40 39 39 38 39 39 38 34 31 33 33 32 32 31 30 29 29 28 29
52 51 51 52 52 52 55 52 48 43 46 46 38 35 34 34 35 38 38 38 38 39 42 43 42 41 38 37 36 37 37 36 34 32 33 27 28 30 30 30 30 30 28 29
52 51 52 52 52 52 55 52 50 51 37 44 39 38 37 37 38 38 38 38 43 46 41 42 36 39 38 37 33 34 36 38 35 32 32 31 31 30 30 30 30 31 32 36
51 51 52 52 51 52 54 55 55 51 38 45 40 39 39 43 44 44 42 43 44 44 48 39 34 33 32 30 28 35 37 40 39 36 30 27 33 30 32 32 29 38 39 39
51 50 50 51 51 51 54 58 59 52 48 50 46 42 44 42 44 44 44 42 46 44 40 35 34 34 30 29 33 34 37 35 33 34 31 32 33 32 36 32 36 41 41 41
50 50 50 50 50 50 53 57 59 55 49 48 47 47 45 43 44 47 44 43 46 44 36 35 37 35 37 35 32 34 31 34 33 33 32 29 33 35 35 37 41 41 42 42
50 50 50 50 50 50 51 53 59 59 54 49 54 52 51 47 46 46 46 44 41 45 42 38 38 35 36 34 32 32 31 34 34 32 33 36 37 37 40 40 41 42 41 39
50 50 50 50 50 50 52 53 57 55 41 49 50 49 50 51 51 52 48 50 45 44 47 46 37 34 40 34 35 37 36 36 36 35 34 35 37 39 41 41 41 41 41 40
49 49 49 49 50 50 51 53 56 54 44 34 44 49 49 50 50 51 51 50 50 50 50 39 36 34 41 37 36 36 37 37 36 35 37 37 38 40 40 40 40 41 41 40
49 49 49 49 50 50 51 53 55 56 49 38 40 45 46 48 49 48 49 49 49 49 41 36 36 42 39 41 39 37 38 36 36 35 37 40 39 39 40 39 41 39 33 29
48 49 49 49 49 50 50 45 50 52 53 40 34 45 44 45 46 46 46 48 49 49 45 39 43 44 39 34 34 36 36 36 38 37 37 37 38 36 38 39 39 30 28 30
48 48 48 49 49 50 46 42 48 50 52 35 36 39 42 41 43 44 45 47 47 47 44 39 39 39 41 34 35 37 38 37 36 36 37 37 36 37 36 33 28 29 29 33
48 48 48 48 48 48 44 47 48 49 43 38 35 34 37 41 42 41 44 43 41 40 40 38 37 40 37 34 36 35 34 32 31 34 35 34 31 29 27 26 27 28 31 33
47 47 47 46 44 41 43 47 47 47 41 34 32 33 33 39 40 39 38 39 33 40 35 38 38 37 34 36 34 32 32 32 34 33 29 28 27 26 26 26 27 29 32 34
46 45 42 35 41 46 46 43 37 35 34 34 32 39 37 38 38 36 36 36 33 32 36 38 37 35 36 35 33 32 32 28 27 31 30 30 29 26 27 27 28 33 33 33
44 42 37 44 45 44 40 34 33 33 32 34 36 37 37 40 35 34 36 33 34 31 33 36 34 31 31 30 30 29 27 26 26 25 25 25 27 27 28 31 34 34 34 34
43 43 44 44 41 38 34 32 35 33 31 37 36 36 37 37 41 37 35 32 34 27 34 32 28 29 26 28 27 24 24 24 24 25 24 24 25 29 33 34 36 34 34 32
42 40 37 37 36 30 28 26 32 32 36 35 36 34 37 37 37 34 32 30 27 35 31 26 29 30 28 24 22 23 24 33 32 26 24 28 29 32 33 33 34 34 32 32
38 33 28 31 28 28 28 31 33 34 35 36 37 36 36 36 32 32 28 30 34 28 24 25 32 27 25 27 28 27 26 31 30 31 32 32 33 33 33 33 32 30 29 31
34 33 26 29 32 36 34 36 36 36 36 37 36 35 34 33 30 31 30 25 22 24 24 32 32 33 32 30 30 27 33 31 30 30 31 32 33 33 32 33 31 32 31 30
34 32 30 33 33 32 32 33 34 37 36 36 36 31 25 24 27 24 23 21 17 26 36 32 29 30 31 29 28 32 31 31 30 30 32 32 33 33 33 33 33 32 32 30
30 30 36 36 34 33 34 34 35 37 34 30 30 22 21 25 22 19 21 24 29 32 32 29 30 29 29 27 28 30 30 31 30 31 32 33 35 34 32 31 32 31 31 31

GFSNW_sfc_dewp_009.txt.gz
Dewpoint
53 53 53 52 52 51 53 54 45 52 56 47 47 37 34 35 34 37 37 37 36 35 36 35 34 35 36 37 35 36 37 34 29 32 33 33 28 32 32 31 32 30 30 30
53 53 53 52 52 52 49 51 49 55 54 40 37 36 37 38 37 36 36 37 37 38 36 33 36 37 40 35 38 36 36 32 27 28 30 34 33 32 33 33 29 28 25 28
54 53 53 52 52 52 52 49 37 49 49 47 38 37 37 37 40 38 38 37 38 37 36 37 34 35 40 40 39 42 39 35 31 28 30 33 32 32 32 32 25 28 29 29
53 53 53 52 52 51 54 47 42 42 39 42 40 40 38 37 38 40 38 38 37 36 33 34 35 38 38 39 42 39 38 31 35 35 35 34 32 31 31 31 30 29 29 28
53 53 52 52 51 51 52 46 46 47 41 40 39 37 37 36 34 35 37 36 38 37 36 38 36 39 38 37 39 38 39 32 33 34 35 35 33 32 32 31 31 30 30 28
52 53 50 52 51 52 53 48 47 49 42 38 37 37 37 37 38 40 38 38 38 34 41 41 41 41 41 40 38 36 35 32 29 32 33 33 26 29 31 31 29 30 28 32
52 51 51 51 51 51 54 53 51 37 34 37 39 39 38 37 39 38 40 39 36 44 44 43 42 40 40 41 39 38 31 30 31 33 30 26 29 31 29 30 31 32 36 38
52 50 51 51 51 51 53 54 52 41 34 42 42 40 40 39 40 39 40 42 45 45 43 35 33 30 29 29 36 39 38 33 31 30 29 30 31 32 31 29 29 39 37 38
51 51 51 51 51 51 53 55 54 46 36 38 44 40 41 37 37 38 42 45 45 44 35 35 28 22 27 27 30 38 38 36 32 29 24 21 27 32 38 36 30 40 40 41
51 51 51 51 51 51 52 54 56 52 41 45 46 41 40 43 40 36 40 42 39 44 35 33 32 27 33 26 26 24 29 30 27 24 26 28 32 33 40 28 32 40 41 41
50 50 50 50 50 51 52 53 56 52 44 47 47 48 45 45 43 35 40 39 38 36 33 33 33 32 31 29 30 27 26 25 29 26 30 23 35 33 29 34 38 37 39 41
50 50 50 50 50 50 51 50 56 56 49 48 52 52 52 50 49 46 43 41 42 42 34 33 34 33 33 32 31 32 30 31 28 30 28 34 34 34 36 37 38 40 40 41
49 50 50 50 50 50 51 51 54 51 40 47 46 46 49 51 51 51 42 41 45 44 44 38 36 34 36 33 33 32 36 37 33 32 33 33 35 36 37 38 40 42 42 42
49 49 49 49 50 50 51 51 53 51 42 34 42 48 48 50 50 50 50 48 49 48 46 36 34 34 40 35 35 35 37 37 35 34 35 35 36 37 38 41 44 42 39 38
49 49 49 49 50 50 50 52 53 54 49 37 38 45 46 48 49 48 49 49 48 43 38 35 35 36 37 36 35 35 38 36 35 33 36 37 37 38 40 40 38 36 36 33
49 49 49 49 49 49 49 44 50 53 53 40 35 43 42 44 45 45 45 47 47 46 40 36 39 42 38 33 35 36 36 37 38 38 39 38 39 37 39 38 35 30 34 35
48 48 49 49 49 50 46 42 46 50 51 36 35 35 40 41 41 44 44 45 45 44 40 37 38 39 41 33 35 36 37 38 38 38 38 37 36 31 31 29 29 31 34 34
48 48 48 48 49 47 44 46 48 49 43 38 35 34 35 40 35 36 41 36 38 39 39 36 36 38 35 33 37 37 37 36 35 36 34 32 30 29 27 27 29 29 33 34
48 48 47 45 44 40 42 47 46 46 42 35 33 32 33 40 39 37 36 37 33 37 34 35 37 34 33 37 37 35 35 35 32 30 29 28 28 28 29 28 27 31 33 32
46 45 40 34 39 46 46 42 36 35 34 33 32 36 34 39 35 33 33 33 32 31 33 36 33 33 34 34 34 35 29 29 30 28 28 27 27 27 27 28 29 33 32 31
43 38 35 42 46 43 37 32 32 32 31 32 34 35 34 38 34 33 33 32 32 29 26 27 24 27 31 32 32 29 29 28 28 28 27 24 24 24 26 29 30 31 31 30
42 42 44 42 38 34 32 31 32 31 28 33 33 34 36 35 38 33 33 31 31 24 29 29 23 28 29 29 27 29 29 29 29 26 25 25 25 27 29 30 29 29 30 31
42 37 33 34 32 28 23 23 29 26 31 34 33 33 33 34 34 32 31 28 26 32 28 23 25 30 28 28 29 28 29 27 26 27 28 29 29 30 29 30 28 26 31 31
32 30 20 23 24 24 27 27 31 32 33 33 33 33 30 32 29 29 25 25 28 25 21 18 25 29 30 29 31 29 28 25 25 27 28 27 27 27 27 25 27 31 27 27
27 29 19 25 28 32 32 33 33 33 34 33 31 30 28 24 22 26 21 18 20 19 17 23 27 28 27 28 27 25 25 25 24 28 26 25 26 27 28 27 27 29 27 27
31 29 24 28 27 30 30 31 33 34 32 30 28 23 17 16 20 17 17 15 15 17 23 26 26 27 27 27 26 26 28 29 29 29 29 28 27 26 28 30 31 31 29 28
26 21 28 32 29 31 31 32 31 34 26 20 21 14 15 22 15 16 23 17 19 23 25 27 26 26 26 27 26 25 27 28 27 26 28 29 29 26 31 30 31 31 29 29

GFSNW_sfc_dewp_012.txt.gz
Dewpoint
53 52 52 52 52 51 50 51 37 44 54 43 43 34 33 35 34 37 37 37 36 35 35 35 35 35 36 37 37 36 36 33 29 31 33 34 33 32 33 27 29 29 30 28
52 52 52 52 52 51 49 47 45 51 50 35 33 36 37 38 37 36 37 37 37 37 36 33 36 37 39 35 38 35 35 30 26 24 27 34 33 32 33 33 29 28 23 25
53 52 52 52 51 51 51 44 38 45 47 45 36 35 37 36 39 38 37 36 37 36 36 36 33 36 39 39 38 41 38 33 28 25 26 33 32 32 31 31 25 29 29 29
52 52 52 51 51 51 51 45 39 41 36 39 38 39 39 37 37 39 37 36 36 35 32 33 37 39 39 39 41 38 36 30 33 33 34 34 34 33 34 32 30 29 29 29
52 52 49 51 51 51 47 43 43 44 39 41 36 37 36 37 34 37 36 37 39 37 36 36 35 38 37 37 38 37 38 30 31 32 35 35 34 34 33 33 32 31 31 29
52 50 50 51 51 53 48 49 48 44 38 36 34 35 36 37 38 39 37 37 36 32 39 40 40 41 40 39 38 34 34 30 29 28 33 32 29 30 31 30 31 30 28 32
51 49 51 50 50 51 52 50 43 36 31 33 35 40 38 38 38 38 39 38 35 41 43 42 38 36 36 38 38 39 31 29 29 29 31 25 30 32 31 30 31 32 37 38
52 49 51 50 50 51 52 52 48 37 32 39 40 39 39 38 39 39 39 41 42 44 39 32 28 27 26 26 38 39 37 33 29 25 28 29 31 31 31 31 32 38 38 38
51 51 51 50 50 51 52 53 51 42 35 36 43 39 40 35 34 36 41 45 45 43 33 30 22 21 26 27 30 38 36 33 27 29 27 23 26 30 38 38 28 39 38 38
50 50 50 51 50 51 52 51 53 48 40 43 45 39 38 41 38 34 37 41 37 41 34 30 26 26 32 27 23 23 28 30 23 20 24 25 30 32 36 21 25 37 37 37
50 50 50 50 50 51 51 52 54 50 42 46 47 48 44 44 41 34 39 38 36 36 33 32 28 31 29 28 30 27 25 25 28 26 26 24 34 34 30 32 36 36 37 40
50 50 50 50 50 50 51 48 54 53 47 45 51 51 52 49 46 44 41 40 39 38 34 34 31 31 32 30 29 33 30 30 27 28 27 32 35 35 36 37 37 38 41 42
50 50 50 50 50 50 50 49 51 49 39 44 45 45 47 51 51 50 40 37 44 42 41 36 35 33 34 33 33 34 34 36 31 32 32 33 35 36 37 38 40 42 41 39
49 49 49 49 50 50 50 49 50 48 42 34 41 46 46 50 49 49 49 46 47 47 45 36 34 34 40 35 38 36 38 39 36 35 36 36 36 37 40 42 39 39 38 39
49 49 49 49 50 50 49 50 51 51 47 36 37 44 45 47 48 48 49 49 47 42 37 35 35 36 36 35 35 35 39 36 35 34 36 37 37 39 41 38 37 37 33 33
48 49 49 49 49 49 50 45 49 51 52 40 35 43 42 44 45 46 45 47 47 45 39 35 38 41 38 34 34 35 37 38 39 39 41 40 40 37 36 35 33 32 32 34
48 49 49 49 48 50 47 43 46 50 52 36 35 35 39 39 40 42 43 44 43 43 40 37 38 39 41 33 35 37 38 38 39 39 40 38 37 35 35 33 32 31 34 34
48 48 48 48 48 48 44 46 48 50 44 38 34 34 35 40 33 34 39 36 37 38 39 36 36 37 35 34 36 38 38 38 38 36 37 37 30 30 30 29 29 29 30 33
48 48 47 45 44 40 42 46 46 45 43 35 33 33 33 41 38 36 34 34 33 36 33 35 37 33 34 37 37 38 38 36 32 30 30 30 30 29 27 26 27 29 31 32
47 45 40 34 39 47 46 41 36 35 34 34 32 35 34 39 34 33 33 33 32 31 33 37 33 34 35 35 36 36 31 30 30 31 30 28 27 25 23 24 27 30 30 31
42 37 35 42 46 42 37 32 33 32 31 32 33 34 34 38 34 33 33 32 32 28 26 31 27 28 31 31 29 31 31 32 31 30 29 24 25 25 26 27 28 29 29 29
42 41 43 41 37 34 32 30 31 30 27 32 31 33 36 34 38 33 32 30 30 23 25 25 24 26 28 28 29 29 29 29 27 27 27 27 27 28 28 28 29 28 28 27
39 36 34 31 32 25 20 25 27 27 32 34 33 32 33 34 34 32 24 24 20 29 27 22 23 29 29 31 31 30 29 27 27 29 30 30 29 28 27 27 27 26 26 28
31 25 23 23 22 24 24 26 31 32 33 33 33 32 29 29 24 29 25 24 27 22 21 18 24 27 28 27 28 25 24 23 23 26 27 27 26 26 25 23 25 22 30 31
24 24 19 24 28 30 31 32 32 33 33 31 26 26 26 23 19 27 23 17 21 21 16 21 26 27 27 26 27 26 25 24 24 27 26 24 24 23 25 26 24 28 30 30
24 25 24 25 27 28 30 31 32 32 27 27 26 20 16 15 16 14 16 14 13 16 18 24 26 26 26 26 27 27 27 26 27 27 27 26 24 25 26 26 30 32 31 31
21 19 27 29 26 23 30 29 30 33 29 18 17 14 14 19 11 13 21 14 17 22 24 27 27 25 25 26 27 25 26 27 27 26 26 26 26 25 28 26 30 29 30 32

GFSNW_sfc_dewp_015.txt.gz
Dewpoint
52 52 52 52 52 51 52 47 34 43 51 41 39 32 32 35 35 37 36 37 35 35 35 34 34 34 35 36 37 34 36 32 28 30 32 34 32 32 32 29 28 28 27 27
52 52 52 52 51 51 49 46 44 49 45 34 32 35 37 38 36 36 36 36 36 37 35 32 35 36 37 34 36 34 34 30 25 22 26 30 32 32 33 32 29 28 24 24
52 52 51 50 51 51 51 41 36 44 44 42 35 34 36 35 38 37 36 36 37 36 34 36 33 36 39 40 37 41 38 32 27 24 23 31 31 32 33 30 25 27 28 28
52 50 50 50 51 51 48 42 36 41 35 38 39 38 37 35 35 37 37 37 37 35 31 32 36 38 38 38 41 38 35 30 32 32 32 33 33 33 34 33 32 30 30 30
51 48 50 51 51 51 46 43 42 41 39 40 35 36 34 37 35 36 36 36 37 37 34 34 34 37 36 36 37 36 37 29 32 30 34 35 33 34 34 34 33 32 31 29
49 49 51 50 51 51 47 47 45 42 36 35 33 34 35 36 37 37 37 38 36 31 37 40 40 40 39 38 37 34 33 30 30 24 32 31 24 29 32 31 30 30 28 30
48 48 50 50 50 51 50 48 41 36 31 31 34 39 37 36 37 37 38 37 34 38 42 40 37 34 34 35 36 39 32 30 29 28 30 23 27 31 30 30 30 31 34 37
49 48 50 50 50 51 52 50 43 37 31 38 38 39 37 38 38 38 37 42 41 41 37 31 27 28 24 27 38 37 35 32 29 29 28 27 29 29 30 29 29 36 37 37
50 51 51 50 50 51 52 50 45 40 35 35 42 39 39 34 32 35 40 44 44 40 31 28 22 20 24 27 29 37 35 31 26 28 26 23 26 28 36 37 29 37 38 36
51 51 51 50 50 50 51 51 50 46 38 41 44 38 36 40 37 33 36 39 37 39 34 30 22 24 31 27 22 23 28 30 26 26 27 26 29 30 33 24 26 36 38 37
50 50 50 50 50 50 51 50 52 48 41 43 46 46 43 43 39 35 38 37 35 35 30 26 26 20 28 28 29 27 25 24 24 26 25 22 32 34 30 33 34 36 36 37
49 50 50 50 50 50 50 49 52 52 47 44 50 50 50 48 44 42 40 39 37 38 35 33 30 31 28 27 29 31 29 29 27 28 28 32 33 35 36 37 37 36 38 40
49 50 50 50 50 50 50 49 50 48 39 44 44 44 46 51 50 48 41 36 42 40 40 35 34 33 33 30 32 33 36 37 33 32 32 32 36 37 37 38 39 40 40 38
49 49 49 49 50 50 50 48 48 47 42 34 40 44 45 49 50 49 47 45 45 45 40 34 34 34 39 35 37 36 37 38 36 35 37 37 37 39 40 42 41 38 37 37
49 49 49 49 50 50 50 49 51 51 48 37 38 42 45 46 48 47 47 47 45 42 36 34 35 36 36 35 35 35 39 36 35 34 37 38 38 42 43 37 37 36 35 33
48 49 49 49 49 50 50 45 50 52 51 39 35 42 41 43 44 46 46 47 46 44 39 35 37 39 38 33 33 36 37 39 40 39 39 41 42 38 38 35 35 35 34 33
48 48 49 49 49 51 47 44 46 50 51 36 35 35 38 39 40 42 43 43 42 43 39 36 38 38 41 33 35 37 38 39 40 41 41 39 36 36 37 35 34 36 33 32
48 48 48 48 48 48 45 46 48 50 45 39 34 34 36 38 32 34 40 36 37 36 39 35 35 36 35 34 38 38 38 38 38 37 37 35 35 32 28 27 27 28 29 30
48 48 47 46 44 41 43 46 46 45 43 34 33 33 33 41 37 36 34 36 33 36 33 34 36 34 34 37 37 37 38 36 33 30 29 29 25 26 27 27 23 24 26 28
47 44 41 34 39 46 46 41 37 36 34 34 33 35 34 39 34 33 34 33 32 32 33 37 33 33 35 30 32 31 30 31 31 30 32 30 27 28 27 24 24 26 28 29
41 37 34 42 46 41 36 33 33 33 32 32 33 34 34 37 34 33 33 32 32 27 25 31 26 24 28 28 28 30 30 30 31 32 32 29 25 24 26 27 28 28 29 29
41 41 43 41 37 34 33 31 31 30 28 32 32 33 36 34 37 33 32 30 30 18 26 28 23 26 28 30 31 32 31 30 29 28 27 28 28 30 30 29 28 27 27 25
39 36 34 33 31 27 21 25 26 27 30 33 33 32 33 34 34 32 29 26 24 29 25 21 23 28 29 29 30 29 28 26 25 25 27 29 29 29 26 27 26 25 26 26
28 27 25 19 20 25 23 22 27 32 33 34 33 31 29 30 21 28 24 22 26 23 18 18 25 27 27 27 27 25 24 24 24 24 25 25 25 25 24 22 23 22 23 28
25 20 13 23 26 30 32 32 33 33 33 31 27 29 26 27 19 26 24 20 20 21 16 20 26 27 26 25 26 26 25 24 23 25 25 24 23 23 24 24 23 23 23 29
23 19 21 28 28 27 30 32 32 33 31 27 24 16 12 14 14 16 19 13 13 15 17 23 26 25 25 25 26 26 26 26 26 26 26 26 24 23 25 25 24 25 27 32
17 17 27 19 24 18 24 30 29 30 28 16 17 13 12 18 9 10 20 13 16 20 22 25 26 26 25 26 26 25 26 26 27 27 27 27 27 25 23 23 27 27 27 26

GFSNW_sfc_dewp_018.txt.gz
Dewpoint
52 52 52 52 52 51 51 42 34 45 49 38 36 31 31 35 36 37 36 36 35 34 34 34 33 33 34 35 36 33 35 31 27 27 31 34 33 31 30 25 25 27 25 25
52 52 50 49 51 51 49 44 43 47 44 32 31 35 37 37 35 36 35 35 36 37 35 32 34 34 37 37 35 35 34 29 23 18 28 29 32 32 32 30 28 28 26 23
52 50 50 50 51 51 46 40 37 43 44 40 34 34 34 35 37 36 36 36 36 35 34 36 34 36 38 39 38 41 38 31 25 21 21 27 30 32 32 31 28 27 27 27
52 49 50 51 51 51 46 40 38 40 34 37 37 37 35 35 33 36 37 36 35 34 31 33 34 37 36 37 40 38 35 30 31 31 31 32 33 33 33 32 31 30 29 29
50 49 50 50 51 51 45 41 41 40 39 39 34 35 36 36 35 35 35 35 36 35 32 32 33 36 35 34 37 35 36 28 31 30 32 33 31 33 34 34 33 33 33 33
49 49 49 50 50 50 46 45 44 42 36 33 32 33 34 35 36 37 37 37 34 31 36 39 39 39 38 37 35 33 33 30 27 22 30 29 21 25 30 31 32 29 27 28
48 48 50 50 50 50 49 46 41 36 31 31 34 38 36 36 35 36 37 36 33 37 41 38 35 32 29 34 36 37 32 28 29 24 25 19 26 30 30 30 30 30 30 34
48 48 50 50 50 51 51 47 41 37 31 36 37 37 37 37 38 38 38 43 41 39 36 32 28 27 23 27 37 35 35 31 28 29 26 27 29 28 29 29 27 32 33 36
49 49 50 50 50 51 52 49 43 40 34 35 39 38 37 33 32 34 39 43 43 38 30 28 23 21 23 26 28 35 34 29 26 28 26 22 26 27 37 35 27 34 37 36
51 51 51 50 50 50 52 50 48 44 36 39 42 37 37 39 35 32 34 39 36 38 32 30 21 24 29 26 21 20 27 30 30 29 28 29 30 30 32 24 27 35 38 37
50 50 51 51 50 49 51 50 51 46 39 42 45 44 41 41 38 34 37 37 34 35 31 28 26 19 28 27 28 26 25 23 23 25 25 21 30 32 28 32 35 35 36 37
49 50 50 50 50 50 50 48 50 49 45 42 47 48 47 44 42 41 38 38 36 37 34 32 28 25 24 26 28 31 28 30 28 29 27 32 32 35 35 37 37 37 38 39
49 49 50 50 50 51 50 48 48 46 39 42 43 42 46 50 49 46 39 35 41 38 39 33 32 27 30 30 30 31 33 35 32 32 32 33 37 38 38 38 38 41 41 38
49 49 49 50 50 50 50 48 47 46 41 34 39 43 43 47 49 48 46 44 44 41 39 34 33 33 37 34 36 35 37 37 35 35 37 38 38 39 41 42 39 38 38 37
49 49 49 49 50 50 49 48 49 50 46 36 37 42 44 45 47 46 45 45 43 41 36 34 35 35 36 35 35 34 39 37 35 34 36 38 40 41 39 36 35 32 34 34
49 49 50 49 49 50 51 46 50 50 51 40 35 41 39 41 43 44 44 45 43 43 39 35 38 41 38 33 33 37 38 40 40 38 40 40 39 37 35 32 32 33 34 34
48 48 49 49 49 51 48 44 44 50 50 37 35 36 35 37 40 41 41 44 44 43 38 35 37 38 40 33 35 36 38 39 39 41 40 37 37 36 35 34 32 29 27 28
48 48 48 48 49 48 46 46 48 50 44 39 34 34 35 37 33 34 40 36 37 37 39 35 34 36 34 34 37 37 37 38 33 29 32 35 33 28 23 23 23 23 23 24
48 48 48 46 45 41 43 46 47 46 44 34 33 34 33 41 37 35 35 35 33 35 33 34 36 33 33 31 31 32 32 34 30 32 29 28 27 25 25 25 25 22 23 25
47 45 41 35 39 46 46 42 38 36 35 34 33 35 34 39 33 33 34 33 32 30 33 34 33 33 28 29 30 31 30 30 30 30 30 29 28 28 26 25 25 25 25 26
42 37 35 42 46 42 37 34 33 33 32 33 34 34 34 37 34 33 33 33 32 26 24 30 29 28 27 29 31 30 29 29 30 30 29 29 30 27 26 27 28 28 27 26
42 42 43 40 37 34 34 32 31 31 29 32 32 33 35 34 37 33 32 30 30 23 26 25 18 26 28 30 28 28 28 27 26 26 26 26 26 28 28 28 28 27 27 24
38 36 34 32 31 29 28 22 26 28 30 33 33 32 32 33 34 31 30 25 20 28 21 19 22 27 30 30 28 26 27 26 25 24 24 25 25 25 24 25 25 24 25 25
30 28 28 25 25 25 23 23 26 29 32 33 33 31 30 30 28 28 24 24 25 20 15 16 23 27 27 26 25 24 23 23 23 25 25 25 24 24 24 23 23 22 22 24
26 22 18 22 24 28 31 32 33 32 33 32 30 28 25 26 21 25 23 21 18 17 14 17 26 27 26 25 25 24 24 23 23 26 25 23 22 22 23 25 23 23 22 22
22 20 22 26 28 27 29 32 31 33 31 29 26 16 14 16 19 19 19 16 13 14 15 23 25 25 25 25 25 25 25 26 26 26 26 26 23 23 26 26 25 24 23 23
17 19 27 21 20 22 19 31 31 32 28 24 14 10 10 16 10 13 17 11 14 18 21 24 25 24 25 25 25 24 25 26 26 27 27 26 26 24 22 24 27 26 27 29

GFSNW_sfc_dewp_021.txt.gz
Dewpoint
52 52 50 50 51 51 48 42 42 49 50 38 37 34 32 36 37 38 37 37 36 35 35 35 34 34 34 36 37 34 35 32 29 26 32 34 33 31 30 28 25 30 30 25
52 51 50 50 51 51 49 44 45 48 47 35 35 38 38 37 36 37 36 37 38 38 35 34 36 36 39 38 37 35 35 32 24 16 28 29 32 33 32 31 31 29 28 24
52 50 50 51 51 51 46 41 41 44 43 40 37 36 36 36 39 37 38 37 38 36 35 37 36 36 40 41 39 41 39 32 25 21 19 27 29 32 32 32 32 28 29 27
50 50 50 51 51 51 46 41 40 42 36 38 38 38 36 36 35 38 38 37 36 35 33 35 36 37 37 37 40 39 37 33 32 32 32 32 32 32 32 32 32 31 29 29
50 49 49 50 51 50 46 41 42 41 39 39 37 36 37 37 36 36 37 36 38 36 34 33 34 37 37 35 38 38 37 33 34 32 33 32 31 31 32 33 33 33 33 33
49 49 49 50 51 49 46 46 45 44 36 34 35 35 37 36 38 38 39 38 36 34 37 39 40 40 39 38 37 36 36 34 31 27 30 29 27 26 30 31 33 32 28 29
49 49 49 50 50 50 49 47 41 39 35 34 35 38 37 37 38 37 39 38 35 38 42 40 36 32 33 35 37 38 34 33 32 31 28 24 27 30 31 30 30 31 30 31
48 48 50 50 50 51 50 46 41 39 33 36 38 38 38 38 39 39 39 43 41 41 38 36 32 31 27 30 36 37 36 34 31 29 27 28 29 28 29 30 28 31 32 36
48 49 50 50 50 51 51 49 44 40 35 37 39 39 38 36 35 38 42 44 43 39 35 34 29 26 25 27 29 34 34 32 34 31 28 25 30 28 37 34 28 33 37 36
49 51 50 50 49 50 52 51 49 43 38 41 42 39 39 39 38 36 37 42 39 40 34 32 32 32 29 28 25 24 30 32 31 30 28 30 32 32 32 28 30 37 39 37
50 50 51 50 50 50 52 52 51 47 40 43 46 45 41 41 40 38 40 40 38 37 34 34 32 30 32 30 29 28 28 28 27 28 28 25 31 33 32 34 37 37 38 38
50 50 50 50 50 50 50 50 50 50 46 43 49 51 50 47 43 42 40 39 38 40 35 33 32 32 29 30 31 31 30 32 31 30 32 34 33 35 37 37 38 39 39 37
49 49 50 50 50 50 50 50 49 46 39 43 44 44 47 50 49 47 42 39 41 40 41 37 35 34 33 32 31 33 33 34 34 33 35 35 37 39 41 42 40 39 38 37
49 49 49 50 50 50 49 49 48 46 42 34 40 44 44 47 50 50 47 45 43 42 41 34 34 34 38 34 36 35 36 37 37 36 37 38 38 42 40 37 36 33 31 30
49 49 49 49 50 50 50 50 50 49 46 36 38 43 44 44 48 49 47 46 45 43 37 34 35 37 37 37 36 35 40 38 36 35 38 40 39 39 38 35 32 30 31 33
49 49 49 49 49 50 51 46 49 51 50 39 34 41 41 41 43 46 46 46 45 44 40 36 39 41 39 33 33 37 39 40 40 39 42 40 38 37 36 31 32 29 29 25
48 49 49 49 49 51 48 46 45 50 49 38 36 36 38 39 40 41 42 44 46 44 39 35 37 38 40 33 34 38 38 37 35 37 39 37 37 35 34 27 25 25 23 23
49 49 49 50 49 48 47 47 48 50 45 40 34 35 35 39 35 36 40 37 39 38 39 35 36 37 35 34 35 32 32 29 28 28 30 30 29 27 26 26 25 25 25 24
49 49 49 47 45 42 44 47 47 46 44 35 33 34 34 40 37 37 36 37 34 37 33 34 36 34 33 30 30 30 32 32 29 30 28 27 25 25 26 26 26 25 26 26
48 47 43 35 39 46 46 42 38 36 35 34 33 36 34 40 34 33 35 34 33 32 34 35 33 33 28 30 30 30 31 32 31 28 24 25 25 26 28 26 26 26 26 28
43 37 35 42 46 42 37 34 34 33 32 33 34 34 34 37 34 34 34 33 33 29 28 32 31 30 28 30 30 30 29 28 28 28 28 28 28 26 26 26 28 28 28 28
43 42 43 41 37 34 33 32 32 32 31 33 33 33 35 34 37 34 32 32 31 25 29 28 24 26 30 30 28 28 29 26 25 25 24 25 25 26 27 27 27 27 27 27
41 37 33 33 32 31 29 26 27 29 32 33 33 32 33 34 34 32 32 27 26 29 25 23 24 28 30 30 29 24 25 25 25 25 25 26 26 26 26 26 27 26 26 27
33 33 29 28 27 26 26 26 28 31 33 33 33 31 31 30 30 28 26 26 26 23 19 20 26 29 28 28 26 24 23 24 23 25 26 26 26 26 26 24 25 24 25 27
26 27 24 25 26 30 31 33 33 33 34 33 31 29 28 26 26 26 25 23 20 21 20 23 29 28 26 26 26 24 25 24 24 26 26 25 25 25 26 27 27 27 26 25
25 24 24 27 28 28 31 32 32 33 31 30 27 22 23 23 23 22 21 19 16 19 22 25 26 26 26 26 26 25 25 25 26 26 27 27 26 25 27 27 27 26 26 26
21 23 26 25 23 27 27 32 32 33 31 25 22 16 17 20 17 18 21 17 21 23 24 24 26 25 24 25 25 25 26 26 27 27 27 28 28 26 25 26 28 29 29 29

GFSNW_sfc_dewp_024.txt.gz
Dewpoint
52 50 50 51 51 51 52 51 40 54 56 41 40 36 32 36 35 37 36 37 35 34 34 34 34 33 34 37 36 31 36 33 27 22 31 34 32 31 29 31 26 31 29 22
51 50 50 51 51 52 52 47 47 52 53 44 43 38 36 36 35 36 35 36 37 37 36 34 35 35 38 37 36 35 36 32 21 22 29 33 31 31 31 30 33 28 31 24
51 50 50 51 51 52 51 46 48 46 45 42 38 37 36 36 38 37 37 37 37 37 36 37 36 36 39 40 38 41 41 33 23 19 18 24 23 24 28 30 33 27 27 25
50 50 50 51 51 51 50 45 46 45 46 41 39 38 36 35 34 38 37 36 36 35 37 35 36 37 37 37 40 40 38 30 30 28 27 27 28 28 27 28 30 29 29 24
50 50 50 50 51 50 49 46 46 46 43 41 39 39 37 35 36 35 35 35 36 34 33 29 34 34 34 32 38 38 38 34 34 32 30 29 29 28 28 29 30 29 29 29
49 50 50 50 51 51 50 50 46 49 41 40 41 39 37 35 38 39 38 38 38 38 36 37 40 40 39 37 36 37 38 38 35 33 30 31 33 29 26 29 29 30 29 28
49 49 50 50 50 52 52 51 46 51 44 42 39 37 38 38 37 39 39 38 38 40 43 42 40 37 37 38 39 40 39 38 36 35 34 29 28 29 29 29 29 28 28 29
49 49 50 50 50 51 51 48 47 49 38 42 40 39 40 41 41 40 40 42 43 44 42 42 39 36 38 36 36 37 39 39 35 32 30 27 27 27 28 28 29 31 31 33
48 50 50 50 49 51 53 52 48 47 39 45 39 40 41 41 42 42 43 44 44 43 45 42 35 32 27 26 30 36 36 38 40 32 30 27 28 29 34 34 28 34 36 37
49 51 50 50 48 51 55 55 54 47 50 45 43 42 41 42 43 44 44 44 45 44 40 35 36 37 30 28 33 32 34 35 34 33 32 31 30 32 33 30 33 37 37 39
51 51 51 50 50 50 54 55 55 51 48 45 47 45 43 42 43 46 45 45 45 43 37 37 37 36 36 33 30 32 32 35 33 33 31 29 31 32 33 37 39 38 40 40
50 50 51 50 50 50 52 53 54 54 51 48 51 52 50 48 44 44 47 43 43 46 43 39 39 36 34 39 34 32 32 32 32 31 32 34 35 35 37 40 41 41 38 36
50 50 51 50 50 50 52 53 54 52 50 48 49 48 49 51 50 49 47 48 44 44 46 45 41 35 40 34 36 35 34 35 36 36 33 34 37 39 42 41 39 39 38 37
49 49 50 50 50 50 52 55 53 52 46 37 46 45 45 47 51 51 50 47 47 46 47 38 38 38 41 41 38 37 36 35 35 36 36 38 38 41 39 37 37 34 29 27
49 49 50 50 50 50 55 56 55 54 51 43 46 46 45 45 48 50 49 49 48 46 41 38 40 45 41 41 39 37 37 36 37 37 39 40 40 38 38 34 28 25 25 25
49 49 50 50 50 50 55 51 55 55 54 47 41 46 44 43 46 48 49 48 50 48 46 40 45 43 44 34 36 38 39 39 41 40 41 40 37 37 33 27 25 24 25 23
49 49 49 49 49 55 51 48 50 51 54 43 39 41 42 41 43 44 45 47 48 48 45 40 43 43 43 35 34 38 35 34 35 40 39 37 38 34 28 26 25 25 20 21
48 49 49 48 48 48 52 51 50 52 48 46 36 38 41 41 42 40 42 42 42 42 43 37 39 39 38 34 36 33 32 30 30 32 36 36 30 27 26 22 20 20 18 19
48 49 49 49 47 44 46 46 48 49 48 37 35 37 36 41 39 40 41 41 36 40 36 36 38 35 35 35 32 31 32 32 31 29 27 23 21 17 18 18 18 20 21 21
48 48 45 36 41 47 47 45 40 38 36 35 34 39 37 42 39 38 39 38 36 34 35 36 34 34 30 31 32 32 31 31 31 27 17 17 19 18 20 21 22 23 23 26
43 38 35 43 46 43 38 34 35 34 33 34 35 35 36 39 36 34 36 34 34 32 33 35 33 31 31 30 27 27 26 24 19 20 20 19 21 22 24 24 26 27 27 28
43 42 43 41 38 34 33 32 32 33 34 34 34 34 36 35 38 35 33 33 33 30 33 32 29 30 31 28 25 27 27 21 19 19 20 21 23 26 27 27 27 29 30 31
43 35 33 33 32 32 32 30 32 32 35 35 35 33 34 35 37 33 34 32 31 32 29 27 29 30 30 27 24 23 22 23 25 20 21 24 26 28 30 30 31 32 31 31
34 32 30 32 31 32 33 34 35 35 36 35 36 34 35 34 33 33 31 30 30 27 24 28 29 30 31 27 26 23 21 32 27 24 25 30 32 32 32 31 31 30 30 31
33 34 29 30 31 34 34 34 36 35 37 37 35 34 35 32 30 31 29 27 25 25 26 30 31 32 29 26 27 25 29 33 28 25 31 33 32 31 31 33 33 32 31 31
33 31 29 30 32 31 33 34 33 35 33 33 34 31 31 29 30 27 27 24 22 27 32 33 31 27 26 25 26 25 24 25 25 26 28 29 32 32 30 32 32 32 32 31
32 29 32 31 33 33 33 35 36 34 35 32 30 27 25 26 26 25 25 26 30 31 31 28 26 25 23 24 25 30 29 26 27 27 28 29 30 33 31 32 30 31 31 30

GFSNW_sfc_dewp_027.txt.gz
Dewpoint
51 50 50 51 52 52 52 50 38 56 58 36 36 37 32 37 33 36 34 34 32 32 32 31 32 31 34 35 34 29 32 30 28 19 27 30 29 28 28 30 25 29 30 24
51 51 51 51 51 52 52 42 44 55 55 42 39 38 35 34 34 33 34 35 35 36 34 33 34 35 38 35 35 35 34 32 25 22 28 32 28 27 28 28 32 27 31 26
51 51 50 51 51 52 53 44 47 45 46 43 36 36 35 35 38 36 36 36 36 36 34 35 35 36 38 40 38 41 39 30 25 24 22 22 23 23 22 25 30 30 27 24
50 50 50 51 51 51 52 44 45 45 43 41 38 37 35 34 34 36 36 35 34 34 34 34 34 35 38 38 39 37 36 32 27 27 24 22 22 23 24 23 25 28 27 25
50 50 50 51 51 51 50 42 45 47 46 41 39 39 36 33 34 34 33 34 34 33 35 29 32 32 31 31 36 35 35 34 35 32 26 22 23 23 24 24 25 25 26 26
50 50 50 50 51 51 48 50 50 48 43 42 40 39 36 34 37 39 34 36 34 37 34 37 38 39 36 34 34 35 36 38 33 34 32 32 34 30 23 24 26 26 28 29
50 50 50 50 50 51 52 51 48 54 45 42 38 36 36 36 36 37 37 37 38 41 42 41 39 37 37 37 38 39 41 37 38 35 34 30 24 25 26 26 26 27 27 28
49 49 50 49 49 51 52 49 48 51 42 41 39 38 37 40 40 39 40 42 42 44 40 42 40 37 37 36 34 36 38 40 37 34 29 26 26 28 29 29 29 30 30 33
49 51 50 49 50 51 52 52 53 50 43 47 39 41 41 43 43 43 43 45 46 45 46 42 36 33 26 27 32 35 36 40 40 35 31 28 27 27 32 31 29 34 35 36
50 51 51 50 50 51 54 54 57 48 52 46 43 43 43 42 43 44 44 44 45 45 44 37 37 37 29 26 33 33 35 37 35 34 33 31 29 31 33 30 34 39 38 40
51 51 51 50 50 50 54 54 56 52 49 46 46 44 44 44 43 46 46 45 46 48 38 37 40 38 37 34 28 33 33 35 34 35 32 29 31 31 34 38 40 41 40 39
51 51 51 50 50 50 52 50 54 55 49 50 52 52 51 49 47 43 48 41 44 44 44 41 43 39 38 39 34 30 31 33 34 34 34 36 35 37 41 41 41 41 38 38
50 51 51 51 50 50 52 53 54 52 54 48 48 48 50 51 52 52 47 50 43 46 49 48 43 36 42 35 38 34 33 33 39 37 33 32 37 40 41 40 40 39 38 36
50 50 51 51 50 51 53 52 54 51 48 40 48 46 47 48 51 51 51 49 50 49 49 41 40 38 41 42 38 38 36 35 35 36 35 37 41 41 40 38 37 35 29 27
49 50 50 51 51 52 54 55 55 54 50 45 48 46 46 46 48 49 49 49 48 50 43 38 40 46 45 44 43 39 37 35 38 37 41 42 40 40 38 35 30 26 26 26
49 49 50 50 50 51 53 49 54 54 53 50 43 47 45 45 46 48 48 48 50 50 47 42 46 42 43 36 37 35 36 37 41 39 40 39 38 37 33 31 27 26 25 21
49 49 49 50 50 55 49 46 52 51 54 48 41 44 45 43 45 46 46 48 49 47 47 45 45 44 42 39 37 35 38 37 38 39 39 37 36 36 33 29 26 25 19 17
48 49 48 48 48 49 52 52 51 52 50 50 36 41 43 43 44 43 44 45 46 47 45 42 43 43 44 37 39 38 36 34 35 38 40 37 35 30 27 21 18 17 17 19
48 48 49 51 49 47 52 47 50 53 51 39 35 36 36 43 41 42 43 44 38 43 37 38 41 38 37 38 37 34 33 33 36 33 29 25 21 18 17 17 18 18 19 19
48 49 47 37 42 47 48 49 44 42 43 41 37 45 39 41 41 39 39 41 38 34 37 37 34 34 34 34 34 35 35 36 33 31 22 21 19 19 19 19 20 21 22 24
44 38 36 44 46 44 40 35 36 35 34 36 39 41 40 42 39 37 40 35 35 33 36 36 35 33 34 33 32 32 32 30 22 22 21 18 19 19 21 23 26 28 27 27
43 42 43 42 39 34 35 34 33 34 35 35 34 35 37 36 40 35 33 34 34 32 34 33 29 32 33 32 29 29 27 24 21 19 18 19 18 22 26 28 27 27 30 33
42 36 34 34 32 32 32 30 34 33 34 35 34 33 34 34 37 33 33 32 33 34 31 28 30 32 31 30 28 27 26 24 23 18 18 20 23 27 30 31 32 35 32 31
34 32 31 32 32 33 35 36 36 36 36 36 35 33 34 34 33 34 33 33 32 29 26 29 32 31 30 29 28 25 24 34 28 26 25 27 34 34 36 34 34 33 32 33
33 34 30 31 33 34 34 35 36 36 38 38 36 36 38 34 32 35 32 29 27 26 28 33 32 32 31 30 29 25 25 35 31 25 30 35 35 34 33 34 35 34 34 34
35 34 32 33 33 32 33 33 33 37 37 38 37 34 33 32 33 30 30 28 25 30 34 33 32 32 30 28 26 25 24 24 25 25 25 29 35 34 32 33 34 34 33 33
34 32 35 34 34 34 34 36 36 37 36 33 34 31 29 30 29 27 28 30 32 33 33 31 30 28 25 23 25 32 28 28 27 27 27 28 30 35 35 33 30 31 33 34

GFSNW_sfc_dewp_030.txt.gz
Dewpoint
50 50 50 51 52 52 53 57 39 59 60 37 37 38 32 35 31 35 33 32 27 28 29 28 30 31 35 34 32 29 30 29 32 20 24 27 27 27 27 36 27 34 33 27
50 50 50 51 52 51 55 42 47 56 56 41 40 37 33 32 31 30 32 33 33 34 32 32 32 36 37 34 37 37 34 33 32 25 28 30 23 23 23 27 35 30 31 26
50 50 50 51 52 52 53 48 47 42 46 46 37 36 35 34 37 35 34 34 34 34 34 34 34 37 38 39 38 42 41 29 25 28 21 22 21 19 21 23 33 31 29 26
50 50 50 51 51 52 52 48 44 40 42 41 37 35 33 34 34 36 35 34 33 33 35 33 34 36 37 37 39 36 37 33 28 27 23 21 19 18 18 19 24 26 27 23
50 50 50 51 51 51 53 46 44 45 44 40 38 38 34 32 31 34 33 32 33 34 35 32 33 33 33 33 35 34 36 37 38 34 24 23 21 20 24 22 23 22 25 25
50 50 50 51 51 52 52 49 50 49 43 42 41 40 35 33 36 38 35 34 35 39 37 40 39 38 35 33 35 35 37 41 37 35 33 33 35 33 24 23 25 26 28 28
50 50 50 49 49 51 57 55 49 54 47 42 37 36 35 34 37 36 35 36 40 41 39 39 38 37 37 34 37 38 41 39 39 34 35 28 25 25 25 26 26 28 27 28
49 50 50 50 50 51 54 54 53 52 41 43 38 38 36 39 39 38 41 42 41 42 39 44 37 40 37 35 33 34 38 41 37 35 30 27 26 28 29 30 30 30 33 35
49 51 50 50 50 51 54 55 57 53 45 45 38 37 40 42 43 43 43 45 45 43 48 43 37 36 30 30 32 36 36 42 40 36 29 26 30 27 32 31 30 38 38 39
49 51 50 50 50 51 55 55 60 52 54 47 46 43 44 43 45 46 44 44 46 46 43 34 35 38 28 30 33 34 35 36 34 33 32 31 30 31 32 29 34 41 39 39
52 52 51 50 50 51 54 56 59 55 50 47 47 45 44 44 46 48 46 45 48 49 37 36 39 38 41 36 29 35 33 34 33 34 33 28 32 34 36 40 41 41 40 39
52 52 51 50 50 50 52 52 55 58 52 51 54 52 51 50 49 45 49 43 46 47 44 41 44 38 38 39 37 27 34 37 37 35 35 39 39 41 43 43 41 39 38 36
51 52 52 51 50 51 53 54 56 55 56 49 49 49 50 51 52 54 48 53 44 46 50 46 42 34 43 34 39 36 30 31 40 38 34 33 40 42 41 40 40 39 37 35
50 51 52 52 51 52 53 53 55 53 50 38 49 47 48 49 51 51 52 50 53 52 49 40 38 37 42 43 39 40 39 37 35 35 34 37 41 41 40 39 37 34 30 27
50 50 51 53 52 51 55 56 55 55 51 44 49 46 46 46 48 49 49 50 50 50 42 37 39 48 46 47 44 42 38 35 38 38 41 40 41 40 40 38 32 28 26 25
49 50 50 51 51 50 54 49 54 54 54 49 41 48 45 45 46 48 48 48 51 51 46 42 47 43 46 37 38 36 32 34 40 39 41 41 40 39 38 34 28 26 25 21
49 49 50 50 50 54 50 47 52 51 55 47 39 45 45 44 45 47 48 49 50 50 48 45 46 46 43 37 37 33 34 37 39 40 39 38 37 36 35 32 27 25 18 18
48 48 48 48 48 49 51 52 51 52 51 50 36 41 44 44 46 43 44 45 46 47 45 43 42 44 43 37 39 36 36 36 39 39 40 39 37 35 28 23 18 18 18 18
48 48 49 52 51 52 52 48 50 55 51 38 36 36 36 43 42 43 43 45 36 43 37 39 42 38 36 38 38 38 35 35 36 36 32 29 26 21 19 18 18 19 19 20
48 50 47 37 44 47 48 51 48 45 44 41 37 44 39 41 41 38 38 40 36 34 37 39 34 35 39 37 37 37 35 37 36 32 26 23 21 20 19 19 20 23 24 25
45 39 36 43 46 47 42 38 37 37 35 39 41 44 39 43 37 36 40 35 36 33 36 36 34 33 36 37 35 36 37 36 32 26 23 21 20 19 21 24 29 31 30 30
43 42 43 42 38 35 36 34 34 34 36 35 35 37 41 39 43 37 34 34 34 32 37 34 31 33 35 34 33 33 32 27 23 21 19 19 18 21 29 31 31 30 32 30
41 37 36 35 32 31 32 31 32 34 34 34 34 33 35 35 37 33 33 32 32 36 32 29 32 33 32 31 30 29 27 27 27 20 20 21 23 27 32 31 32 31 32 31
34 32 31 32 32 33 33 33 34 35 36 35 34 33 34 33 32 32 32 33 35 30 28 28 34 31 30 30 30 28 27 28 29 31 29 28 32 32 32 32 32 30 32 32
33 33 31 31 33 34 34 34 35 35 36 35 34 34 34 33 32 33 32 29 28 30 30 34 35 34 33 31 29 28 30 32 31 30 30 30 31 32 32 33 33 33 32 31
35 34 32 34 33 32 32 33 33 36 35 36 36 33 32 32 33 31 30 29 28 33 35 36 35 35 34 33 30 29 28 29 30 30 29 29 30 30 32 33 33 32 32 32
33 33 34 35 33 33 33 34 34 37 35 32 34 31 28 32 30 28 32 31 34 37 37 35 35 33 32 30 29 30 30 31 31 30 30 30 31 32 32 32 32 32 32 33

GFSNW_sfc_dewp_033.txt.gz
Dewpoint
50 49 50 50 52 52 52 53 40 58 59 39 42 36 37 35 33 38 38 37 32 33 31 33 32 35 36 35 35 32 32 31 26 25 27 29 28 29 30 27 26 29 28 24
50 49 50 50 51 52 56 48 50 56 57 36 38 38 37 36 33 34 36 36 37 36 36 33 38 38 40 40 38 37 36 29 27 27 29 32 26 25 25 30 30 26 22 23
50 50 50 50 51 52 53 52 42 48 50 48 42 38 36 37 39 39 36 36 37 38 35 36 38 38 41 42 38 41 40 31 28 25 24 24 23 22 21 24 27 27 27 28
50 50 50 51 51 51 52 52 45 42 38 38 42 39 37 37 37 39 38 37 37 36 32 35 37 39 39 41 40 39 37 31 33 32 27 25 24 23 21 20 22 24 25 26
49 49 50 51 51 50 52 51 48 45 41 37 40 39 35 37 36 36 36 36 36 37 35 37 36 37 36 37 37 37 37 33 32 28 32 30 26 26 28 26 26 26 28 28
49 49 50 48 49 52 53 51 51 50 43 39 40 39 38 38 39 41 41 37 40 38 39 39 40 39 37 38 36 36 39 33 30 27 33 30 25 29 26 27 27 28 26 31
49 49 50 49 48 52 57 55 54 45 38 43 40 40 39 40 38 38 43 42 40 40 40 39 40 37 35 39 37 43 34 33 32 23 27 11 29 29 31 31 31 32 35 37
49 50 50 50 50 51 55 55 54 46 36 44 40 38 41 42 44 43 42 43 43 41 44 36 27 31 25 31 36 37 40 33 26 27 25 27 28 31 31 30 33 38 38 38
49 50 50 50 50 51 55 55 56 51 40 41 45 39 41 41 42 43 43 46 46 47 41 31 25 26 28 30 33 37 40 36 28 21 17 16 28 32 33 33 27 40 39 39
50 50 50 50 50 51 56 55 56 55 46 47 47 43 42 45 44 41 43 44 43 45 36 33 27 27 34 30 29 27 28 31 24 21 18 27 34 34 35 24 28 40 40 39
52 51 50 50 50 51 55 53 56 54 47 48 51 51 48 46 47 39 44 39 41 37 33 28 31 31 32 30 34 32 27 26 28 29 24 22 36 37 29 35 41 39 38 38
52 51 50 50 50 51 52 52 55 56 52 50 52 51 50 51 51 47 45 40 45 44 37 36 35 34 34 33 27 34 30 33 30 30 29 34 38 38 41 41 39 39 38 37
51 52 51 50 50 51 53 54 55 54 47 49 49 48 50 50 51 53 45 45 46 47 47 40 39 33 36 28 31 32 33 37 33 34 35 37 41 41 40 40 39 39 38 36
50 51 52 51 50 50 54 54 55 51 47 36 45 47 47 49 51 50 51 50 50 49 44 37 36 33 40 33 33 33 35 37 34 33 37 40 41 40 39 39 39 36 36 34
50 50 52 50 50 50 55 55 55 55 50 38 40 47 46 47 48 49 51 50 48 43 38 34 35 36 37 35 36 34 39 36 31 30 39 39 39 39 39 37 34 34 29 28
49 50 50 50 50 50 55 50 54 53 55 42 37 46 45 45 46 48 49 50 48 46 40 36 42 46 38 33 31 38 37 37 39 41 41 40 40 39 39 37 35 29 25 24
49 49 49 49 49 51 49 46 50 49 52 40 35 40 43 43 46 46 47 47 46 45 39 37 38 40 40 34 33 37 37 41 40 39 39 37 37 37 38 36 32 25 21 22
48 49 48 48 48 49 50 50 50 50 47 43 34 36 36 44 39 37 43 39 43 43 40 38 37 38 35 33 39 39 38 39 39 40 40 39 39 37 36 33 22 21 21 22
48 48 50 50 48 47 49 48 48 51 46 34 35 33 31 43 39 38 38 41 34 39 34 36 38 34 35 38 39 38 37 38 39 39 37 36 35 25 22 21 22 22 24 25
49 50 46 37 42 47 49 47 42 39 38 37 36 38 36 40 35 34 36 35 33 33 34 38 33 34 38 40 37 36 37 37 37 34 29 28 25 23 22 22 26 27 26 27
46 40 36 42 46 45 39 35 35 35 35 36 38 37 37 40 34 34 35 33 33 31 32 34 32 32 36 37 36 37 38 37 35 28 24 22 23 23 25 27 29 27 27 27
43 42 43 41 38 35 36 34 33 34 34 34 34 35 38 35 40 34 33 33 33 29 35 32 29 32 34 34 35 36 37 32 24 23 23 24 24 29 27 26 26 28 28 24
42 37 35 35 32 33 33 32 32 32 33 34 33 33 33 34 35 33 33 32 31 34 32 27 30 34 34 34 32 28 24 25 25 25 26 26 26 26 25 26 28 26 28 29
34 33 30 32 30 31 30 31 32 33 33 33 33 32 33 32 32 32 31 31 32 29 24 23 33 35 32 31 31 29 25 26 25 26 27 24 25 27 26 25 26 23 27 29
33 33 29 29 31 32 32 33 33 33 34 34 33 33 33 32 30 31 30 28 26 28 28 31 34 33 31 30 30 28 26 25 26 27 25 23 23 26 27 28 28 29 27 25
33 33 30 32 32 32 32 32 32 34 33 34 33 31 31 29 30 28 28 27 26 29 32 34 33 32 32 30 28 26 26 25 25 27 27 27 25 24 28 29 28 26 26 25
33 30 34 33 32 32 32 33 32 35 33 31 32 28 26 30 27 27 31 28 30 32 32 33 31 30 29 27 27 27 27 27 28 28 28 28 29 27 27 27 29 29 30 26

GFSNW_sfc_dewp_039.txt.gz
Dewpoint
49 49 49 50 51 51 51 46 34 52 42 30 38 35 37 37 32 35 36 36 34 30 31 35 34 33 35 39 37 28 33 29 24 24 27 30 28 28 27 21 21 27 25 21
49 49 49 49 51 51 51 44 49 54 38 26 34 35 36 36 32 33 34 35 37 37 36 34 37 36 40 35 35 33 31 27 23 23 28 28 27 25 32 29 27 24 18 20
49 49 49 50 51 51 52 46 40 44 48 37 33 31 34 35 38 36 35 35 37 35 36 39 36 37 39 37 33 40 37 32 24 22 25 26 20 21 26 26 25 25 24 24
49 49 49 50 51 51 50 47 39 39 34 39 41 35 36 35 34 37 36 34 35 34 33 36 37 38 37 37 38 37 33 29 30 29 29 25 23 21 21 20 21 20 20 26
48 48 48 50 51 50 48 48 44 42 34 35 39 38 36 35 36 35 35 33 38 36 33 34 35 36 34 30 34 36 37 30 29 26 31 30 23 23 24 26 23 23 30 32
48 48 48 48 50 50 47 49 50 43 40 36 34 37 35 37 37 41 40 38 36 34 37 39 39 38 39 37 34 37 34 29 23 15 29 22 15 22 26 26 28 27 30 31
48 48 48 48 49 50 54 53 49 42 36 32 34 40 38 38 38 38 41 39 36 38 39 34 32 32 37 39 39 38 32 30 24 17 19 7 18 28 28 28 33 34 35 35
49 50 50 49 48 49 55 53 48 41 33 41 39 41 42 42 43 42 43 44 41 41 33 28 22 26 25 31 37 37 35 29 26 17 19 17 22 31 33 28 28 37 36 37
49 50 49 50 50 51 55 53 50 44 41 40 44 42 41 39 39 39 41 45 45 39 31 26 20 19 17 29 33 36 34 29 23 25 9 5 18 31 32 30 25 38 38 37
50 50 49 49 50 52 53 53 52 47 43 45 45 41 40 42 40 37 40 41 40 37 26 20 21 24 27 27 26 27 28 23 22 16 14 22 26 32 32 23 20 39 39 38
50 50 50 50 50 51 51 52 52 49 45 47 49 49 44 43 41 37 40 37 37 32 26 22 24 22 29 29 31 31 30 25 22 23 16 18 31 32 27 30 37 39 38 37
51 50 50 50 50 51 50 50 54 53 49 47 49 49 50 49 43 44 40 38 39 37 31 28 28 30 34 27 25 32 26 27 27 28 27 31 33 34 38 39 38 38 38 37
49 50 50 50 50 52 52 52 51 48 44 46 46 46 49 48 49 49 41 42 44 41 38 37 31 23 32 29 30 30 32 34 30 30 30 33 35 39 40 39 38 38 38 38
49 49 49 50 51 51 52 51 50 45 42 35 43 47 45 47 51 51 48 47 44 42 39 35 32 26 35 28 29 32 32 35 33 32 35 38 39 39 38 38 38 38 38 37
49 49 49 49 51 51 52 51 50 49 39 38 37 45 46 47 50 49 48 46 44 40 36 33 33 33 33 30 32 31 36 34 31 30 34 36 35 39 38 37 37 37 35 28
49 48 49 49 51 51 45 42 49 50 46 40 34 43 43 44 48 47 47 48 44 40 38 35 37 41 34 33 34 37 39 39 36 35 39 38 37 38 39 37 36 35 30 23
48 48 48 48 48 50 44 38 46 48 45 38 35 33 41 43 44 43 43 43 43 42 39 34 36 37 38 34 32 35 36 38 40 40 39 37 37 38 39 35 33 27 24 23
49 48 48 49 49 48 47 48 47 46 40 37 33 32 34 41 36 37 40 37 38 39 39 36 32 36 35 34 37 39 39 39 38 38 38 38 39 39 37 24 23 23 23 25
48 47 48 47 46 45 47 46 46 44 41 34 28 30 30 39 38 35 35 38 33 37 34 35 35 33 33 36 37 37 38 37 37 38 38 37 36 28 24 24 25 24 25 25
47 47 43 38 43 46 45 42 38 37 37 37 33 35 34 39 34 34 30 34 29 32 29 37 33 34 35 36 37 39 37 39 39 36 27 26 28 30 30 27 26 26 25 26
44 40 37 43 44 42 38 35 33 35 35 35 35 34 36 38 34 33 32 29 32 29 27 30 28 31 33 36 36 36 33 31 30 30 31 33 34 31 28 27 27 25 25 25
43 41 42 39 36 35 34 32 34 34 33 34 35 35 37 35 35 32 33 30 32 28 34 32 29 32 34 36 30 27 32 35 36 37 36 31 26 25 24 22 22 24 25 23
42 37 35 35 33 33 34 33 32 32 33 34 34 33 33 34 35 33 33 32 30 33 31 30 31 34 32 31 29 32 35 35 31 26 25 26 25 25 23 23 24 24 26 27
34 34 33 32 31 30 30 32 32 32 33 33 33 32 33 32 33 32 31 32 32 29 27 23 32 36 36 34 30 26 26 25 26 26 25 25 25 25 24 22 22 20 25 27
32 33 28 27 30 32 32 32 33 32 34 33 33 33 33 31 31 31 29 27 24 23 21 30 32 36 31 29 27 25 26 25 24 24 24 22 22 23 25 25 25 26 23 23
32 32 29 31 31 31 32 32 32 33 33 33 33 31 29 28 29 25 25 24 19 21 31 33 34 34 30 28 28 27 25 25 26 26 26 26 23 21 26 26 26 24 23 23
31 31 33 32 32 32 32 32 32 34 33 30 31 26 23 29 25 24 27 21 25 30 31 33 32 30 28 27 29 29 27 26 26 27 27 27 27 25 25 25 27 27 28 25

GFSNW_sfc_dewp_042.txt.gz
Dewpoint
50 50 49 49 49 51 52 43 36 51 41 31 37 34 36 38 32 35 35 34 30 29 31 33 32 32 33 38 36 27 32 28 23 23 26 30 28 27 25 20 20 26 24 22
49 49 49 49 50 51 50 45 49 53 37 29 33 34 34 36 32 33 34 34 35 36 35 33 35 36 38 34 34 30 30 26 23 22 24 27 26 27 30 27 26 24 17 17
49 49 49 49 51 51 49 45 42 44 44 35 32 29 31 34 37 36 35 35 36 36 36 37 35 36 37 35 34 40 36 29 23 21 20 25 20 21 28 25 23 23 23 22
49 49 49 50 51 51 51 44 40 41 37 40 33 30 32 34 33 36 35 33 34 34 33 35 35 37 36 34 38 37 30 27 29 29 29 25 21 20 22 21 22 19 20 25
48 49 49 49 51 51 49 46 40 38 34 42 37 35 35 34 35 35 33 32 37 35 34 33 34 35 32 25 35 35 35 29 28 28 30 28 24 23 22 22 21 23 26 25
48 48 48 50 50 50 47 49 48 40 38 37 37 37 36 36 38 40 39 36 35 34 36 38 39 38 37 35 34 35 32 28 25 21 26 19 16 21 23 26 26 26 26 28
48 48 48 49 50 50 52 51 48 41 33 33 36 38 37 37 37 37 40 38 35 37 38 35 32 32 38 39 39 36 30 27 22 15 17 4 16 24 27 25 28 30 32 33
48 48 48 48 50 50 53 52 46 41 32 34 37 39 41 41 42 41 42 43 41 38 30 29 27 25 28 31 36 34 32 27 24 15 17 15 16 30 30 27 24 35 33 35
50 49 49 48 49 48 53 52 49 45 39 38 42 41 40 38 38 38 41 44 41 35 29 26 22 21 24 26 33 35 31 27 23 19 9 5 16 29 32 29 25 34 36 36
49 49 49 49 50 50 54 52 51 47 43 44 43 40 39 40 39 36 39 40 38 34 26 19 19 20 24 25 25 28 27 24 20 14 11 20 23 31 31 23 23 37 37 37
50 49 50 50 50 51 53 52 53 48 44 46 47 48 43 42 40 36 40 37 36 31 26 23 23 22 28 28 29 32 29 27 26 21 12 17 28 31 27 30 33 37 37 37
50 50 49 50 51 51 53 52 53 51 48 47 48 47 48 48 41 43 39 38 38 36 30 24 25 26 31 27 24 33 26 27 26 26 26 29 31 33 36 36 36 37 37 37
50 50 50 50 51 50 52 52 48 48 44 45 46 45 48 47 48 47 39 40 41 38 36 32 29 23 30 25 29 29 32 32 28 28 28 31 32 36 39 39 37 38 38 37
49 49 50 50 50 51 51 50 48 45 42 36 42 46 45 47 50 50 47 44 42 40 38 32 31 25 32 27 28 30 31 33 31 31 33 36 38 39 37 38 38 38 38 37
49 50 51 50 50 50 51 49 48 47 38 38 37 44 45 47 49 47 46 44 42 39 35 33 33 31 32 32 31 31 34 32 30 29 32 32 32 36 38 37 37 38 35 31
47 48 49 49 49 48 43 41 48 49 45 40 34 42 42 44 46 45 45 45 42 39 38 34 36 39 34 33 34 36 37 37 35 33 37 36 35 36 37 38 37 36 27 26
48 48 49 49 48 48 40 37 45 46 44 38 35 33 39 41 43 41 41 41 40 40 38 35 36 37 37 33 32 34 37 38 38 38 37 35 35 36 38 35 29 26 24 25
48 48 48 48 48 48 47 46 46 45 38 36 32 31 34 40 37 37 41 37 38 39 39 36 34 36 34 33 36 37 38 37 37 37 37 38 39 31 25 24 24 25 25 26
48 47 47 47 46 44 46 46 45 43 39 30 26 29 28 38 37 35 37 37 34 37 34 35 34 33 33 34 36 36 36 36 37 37 35 31 25 24 25 27 29 29 27 25
46 46 43 37 43 46 45 41 37 37 37 35 32 35 34 39 34 34 30 33 29 23 28 37 33 34 35 35 35 36 36 37 37 28 28 32 33 34 35 34 28 26 25 26
44 40 37 43 44 43 37 34 33 34 33 36 35 35 35 38 34 33 31 29 31 26 26 32 30 31 32 33 30 33 32 33 34 35 36 36 35 33 29 26 26 25 25 24
43 43 42 40 37 35 34 32 33 33 31 34 35 35 37 35 33 34 33 25 31 27 33 31 28 32 32 30 35 37 37 37 37 37 37 35 30 26 24 22 21 23 25 24
39 36 34 34 31 33 33 31 32 32 33 34 34 33 33 34 35 33 33 31 29 32 31 29 31 30 29 34 36 35 35 34 29 25 25 25 24 24 24 23 24 25 25 26
34 33 34 32 32 31 31 32 33 32 33 33 33 32 33 32 33 32 32 32 32 29 27 24 32 35 35 36 33 28 26 26 26 25 24 24 25 26 24 22 22 19 23 26
33 33 28 28 30 32 32 32 33 32 33 33 33 33 33 32 31 31 30 27 21 21 19 30 32 35 31 27 26 26 25 24 25 25 25 22 22 23 25 25 25 26 23 23
33 32 27 31 31 31 32 32 32 33 33 33 33 31 29 28 28 25 24 23 17 21 30 32 35 32 28 27 27 26 26 25 26 26 26 26 23 21 26 26 25 23 22 22
32 30 32 32 32 31 32 32 32 34 33 31 31 23 22 27 21 21 25 18 26 31 32 33 32 29 27 27 30 28 27 26 26 27 27 28 28 25 25 26 28 28 28 25

GFSNW_sfc_dewp_045.txt.gz
Dewpoint
51 51 51 50 49 50 51 45 38 53 46 35 36 32 32 38 35 37 37 34 32 31 33 33 32 33 34 39 37 30 31 31 28 24 26 30 28 28 29 26 21 28 26 21
50 50 50 49 49 52 50 41 48 55 42 33 33 35 35 36 34 35 35 37 36 39 37 34 35 37 39 35 34 34 33 29 26 23 24 28 28 29 27 27 28 26 30 19
50 50 49 49 49 51 50 48 43 46 42 37 34 32 31 33 39 38 37 36 38 38 37 38 36 36 38 38 35 41 37 29 27 25 22 27 24 27 27 27 28 24 24 19
50 50 50 49 49 51 50 45 42 44 39 37 34 32 34 33 35 38 37 36 36 36 35 36 36 37 36 35 40 38 34 29 28 29 29 26 22 21 27 24 24 26 22 23
50 50 49 48 49 51 51 44 40 38 38 41 34 35 35 34 36 37 36 36 37 37 35 35 36 36 34 30 36 36 34 32 29 29 29 27 25 24 23 24 21 23 23 23
49 49 49 48 50 51 49 50 47 39 37 39 33 34 36 35 39 41 39 38 37 36 38 40 40 39 38 35 36 36 32 32 29 25 25 20 24 25 25 24 25 25 23 25
49 49 48 48 50 50 52 51 47 40 33 37 34 37 38 37 37 39 41 39 37 39 41 38 36 36 38 38 36 35 31 27 25 25 22 16 21 26 25 26 27 27 30 32
49 48 48 49 50 50 54 52 46 41 34 35 36 39 41 42 43 42 42 43 41 40 35 35 32 32 33 33 34 32 31 29 26 27 19 17 16 23 29 28 24 31 30 34
48 47 47 48 50 50 54 53 50 44 38 36 39 41 41 39 40 41 43 43 41 36 33 32 29 29 29 26 33 35 30 30 31 24 21 17 20 25 33 30 27 31 35 36
47 47 48 48 50 50 54 53 51 48 44 46 44 41 40 41 40 39 40 40 40 37 32 30 31 29 25 25 26 31 33 31 31 21 27 24 24 28 32 25 26 36 37 37
49 49 48 48 49 50 53 52 53 50 46 47 49 48 42 41 42 39 41 39 40 35 34 34 30 32 30 29 29 32 31 31 30 25 25 25 27 31 32 35 34 36 38 38
49 49 49 49 49 51 53 52 54 52 48 47 49 48 48 49 44 43 41 40 39 39 35 32 31 32 33 30 30 33 30 31 31 29 30 32 31 34 36 36 35 38 39 39
49 50 50 50 50 51 52 53 51 50 47 46 46 46 48 49 49 49 41 42 41 38 38 35 34 32 33 32 31 31 33 32 32 31 30 31 33 35 39 40 39 39 39 39
49 49 50 50 50 51 51 51 50 49 45 37 43 46 46 48 50 50 47 43 41 40 39 35 34 34 33 32 31 33 32 33 31 32 33 34 36 39 38 40 39 39 39 38
50 50 50 50 50 50 50 50 49 50 44 39 40 45 45 46 48 46 44 43 42 41 38 34 35 34 35 35 34 33 34 33 34 33 33 34 34 38 39 39 39 38 35 30
50 50 50 49 49 48 46 45 48 46 46 42 36 43 43 45 46 44 44 45 43 41 39 35 37 41 37 34 34 36 36 38 36 35 39 37 39 39 39 39 38 32 29 28
48 48 49 49 48 47 38 39 45 45 44 40 35 36 40 42 44 43 42 43 42 42 39 37 39 39 39 34 33 35 39 39 39 39 39 38 39 38 35 30 27 27 25 26
48 48 47 47 47 48 47 47 46 44 38 38 33 33 37 41 38 38 41 39 40 40 39 37 36 37 36 35 37 38 39 39 38 38 39 37 30 26 24 25 28 32 33 33
47 47 47 47 46 46 47 46 45 43 39 33 30 32 33 40 37 36 38 38 34 37 35 37 38 34 33 35 35 35 36 38 35 29 27 26 28 31 34 35 35 35 34 30
46 46 43 38 44 45 44 41 38 37 37 35 32 35 34 39 36 34 34 34 33 32 34 37 34 34 35 31 32 33 36 37 31 32 32 33 35 35 35 33 33 31 26 26
44 41 38 44 44 42 36 34 34 34 33 36 35 36 35 38 36 33 33 32 31 29 29 34 31 31 33 34 35 35 35 35 35 35 36 37 36 34 32 27 27 26 25 24
44 43 43 40 38 35 34 33 34 32 33 35 35 35 38 35 35 34 33 29 32 27 33 32 28 32 32 35 36 37 37 37 36 36 36 34 30 28 26 23 22 24 25 26
43 39 37 37 35 33 26 28 32 32 34 34 34 34 35 35 36 33 34 31 29 34 32 29 31 29 36 35 34 34 33 30 28 26 25 25 25 25 25 26 26 26 27 27
35 35 33 31 32 33 33 32 34 32 33 34 34 33 34 33 35 33 33 32 33 30 27 28 31 33 36 34 31 28 25 27 26 26 25 26 26 26 26 25 25 24 26 27
33 33 29 29 31 32 32 32 33 32 34 34 34 33 34 32 32 32 31 29 26 25 24 31 34 34 35 31 28 26 26 26 27 26 26 25 24 25 26 28 28 28 25 25
33 31 30 32 31 31 32 32 32 33 33 34 34 32 31 29 29 27 26 26 22 25 32 32 34 34 29 28 27 27 27 27 27 27 27 28 26 26 27 27 28 26 26 25
32 30 32 32 32 32 32 32 32 34 33 31 32 27 26 29 25 25 27 24 26 31 32 32 33 31 28 28 31 29 28 29 29 29 28 27 27 26 24 22 21 23 24 25

GFSNW_sfc_dewp_048.txt.gz
Dewpoint
50 52 52 51 50 50 51 48 39 58 57 43 42 38 32 35 33 37 31 29 26 26 29 29 25 27 29 36 32 30 32 31 30 25 27 29 28 27 27 24 21 30 27 13
50 51 51 50 50 51 50 43 48 56 50 42 40 35 31 34 32 33 34 32 31 35 32 31 33 34 37 35 34 33 32 30 28 26 26 30 27 28 27 26 30 25 30 15
49 51 51 50 50 51 51 43 46 52 48 40 38 34 31 30 39 35 35 35 37 37 35 37 36 36 36 36 35 40 36 31 28 26 22 26 26 27 26 23 25 18 21 10
49 51 51 50 50 50 52 46 40 43 44 39 36 35 30 28 34 36 37 36 34 34 35 35 35 36 34 36 40 38 35 30 28 27 26 25 24 23 26 23 21 24 16 13
49 50 50 49 49 50 51 45 42 43 43 39 34 35 32 28 35 35 34 34 36 37 35 33 35 35 34 34 37 37 35 33 31 29 29 27 25 24 23 26 24 22 21 20
49 50 50 49 49 51 49 53 46 42 41 39 34 33 30 30 38 40 38 38 38 38 38 41 41 39 36 34 37 37 35 35 32 25 25 25 33 28 24 22 25 25 23 24
49 50 49 48 49 50 51 52 45 48 39 37 31 31 34 35 37 39 39 39 39 41 42 41 39 39 37 36 35 35 35 34 34 33 27 30 17 23 24 25 25 24 24 27
48 49 48 48 49 50 56 56 48 45 41 38 33 34 38 42 43 42 41 42 41 42 39 39 36 39 41 38 34 32 32 33 33 37 22 18 12 17 19 22 17 24 25 25
49 48 48 48 49 50 54 59 54 47 44 40 33 37 41 41 42 43 42 42 42 38 40 42 39 35 32 32 34 34 31 33 36 33 35 32 18 26 33 30 24 29 30 32
48 48 48 48 48 50 56 57 55 49 49 44 43 39 41 43 43 44 41 40 41 39 43 39 41 37 28 29 32 34 37 38 38 33 37 28 23 28 33 24 24 33 34 35
47 47 47 48 49 50 56 56 57 53 50 49 49 46 44 43 44 44 42 41 42 43 43 40 39 42 32 29 27 32 33 36 36 33 35 31 26 32 31 34 35 35 38 38
47 47 47 48 50 50 53 55 56 56 51 49 50 50 50 49 45 44 44 43 42 42 43 42 41 38 36 37 34 33 31 33 34 32 31 32 32 35 37 36 35 37 38 39
48 48 48 48 50 51 53 55 56 54 53 48 49 48 49 50 51 52 44 46 43 41 43 43 43 37 39 37 35 33 33 33 34 32 28 30 33 33 35 35 38 38 40 40
49 48 48 49 49 51 53 54 54 55 50 42 47 48 48 49 50 50 48 46 44 43 44 46 42 42 36 37 34 35 33 34 32 33 32 32 33 37 39 39 40 40 40 40
49 49 49 49 50 50 53 52 52 53 52 43 47 48 47 48 47 46 46 45 44 46 45 40 43 39 40 40 38 37 33 32 35 36 34 34 36 41 42 41 40 40 37 35
49 49 50 49 49 49 53 46 49 49 51 48 43 46 46 47 48 47 46 47 47 47 45 41 41 40 42 38 37 36 36 37 38 35 40 40 41 41 40 40 38 35 33 31
49 49 49 49 48 52 44 42 48 46 48 46 40 45 44 46 46 46 47 47 46 47 43 41 42 42 42 37 39 38 40 40 40 40 40 40 39 37 35 33 30 32 33 35
48 48 48 48 47 48 48 47 45 46 43 46 37 41 45 44 44 42 43 43 45 43 41 41 41 41 42 39 38 37 38 39 39 38 38 36 32 29 29 32 35 37 35 34
48 48 48 52 50 51 49 46 46 47 44 39 35 39 38 42 39 40 43 43 37 41 39 40 41 36 36 36 35 36 37 38 35 33 32 30 31 32 34 35 36 34 34 31
47 49 47 47 48 45 45 45 46 44 42 40 34 39 37 41 41 39 41 40 37 34 38 39 39 38 33 32 34 36 38 37 35 32 32 34 35 35 34 32 31 30 30 26
50 47 43 48 45 46 43 38 38 40 36 39 38 39 37 40 38 36 38 35 36 34 35 37 35 34 33 35 36 36 35 34 34 34 34 35 33 30 30 27 27 26 24 23
48 47 46 45 44 42 37 34 37 37 35 38 38 38 39 38 41 38 37 33 36 33 35 36 30 33 34 35 36 37 37 36 34 34 34 33 29 25 24 23 24 26 27 32
48 45 38 43 37 35 37 32 35 34 37 36 37 35 39 38 40 35 37 35 33 36 34 30 32 32 35 36 35 34 34 34 33 26 23 24 25 27 28 29 28 33 30 30
38 36 34 35 35 34 35 36 37 34 35 37 38 35 37 37 37 36 35 34 34 31 29 30 31 35 35 33 30 26 25 32 27 25 27 28 28 28 32 32 32 31 28 27
36 37 32 32 32 33 33 34 35 35 36 38 39 37 39 35 33 34 34 31 30 30 30 32 34 35 34 30 27 25 27 32 31 27 30 31 32 31 30 29 25 25 27 26
35 34 32 33 33 32 33 33 33 35 36 37 38 34 34 32 34 33 32 31 29 31 32 34 35 35 32 29 28 28 27 28 29 30 30 29 29 27 23 24 23 25 24 24
34 32 33 34 33 32 32 33 33 35 35 33 35 33 30 33 31 29 31 31 32 33 33 33 36 34 29 28 29 31 31 30 30 28 26 25 23 23 20 17 15 15 17 22

GFSNW_sfc_dewp_051.txt.gz
Dewpoint
49 50 51 53 51 50 49 48 41 54 56 38 42 40 35 32 26 35 33 29 23 23 23 24 22 19 23 31 30 26 28 26 24 24 25 26 26 24 25 28 21 24 27 16
49 49 50 52 51 50 46 45 46 58 52 37 43 39 35 31 28 30 32 28 24 26 25 25 25 24 38 33 33 28 32 25 24 24 26 28 25 24 23 25 28 25 29 19
49 50 50 52 50 50 49 43 45 51 52 39 41 38 35 31 32 31 32 28 27 29 26 27 29 30 36 37 34 40 37 26 24 25 22 24 28 24 24 25 29 24 17 15
49 49 49 51 50 49 49 46 40 45 41 39 42 39 34 30 27 34 35 32 31 30 29 28 30 33 36 37 39 35 35 30 26 24 26 24 23 22 23 23 22 25 20 14
48 49 49 51 50 49 50 45 39 41 37 39 42 40 36 29 25 30 34 32 28 30 30 31 30 33 35 34 38 37 35 31 32 30 28 27 25 24 22 21 21 16 16 16
48 48 48 50 50 49 47 51 49 42 42 41 39 39 35 28 28 39 38 33 29 33 35 41 40 37 35 35 37 37 36 34 33 26 26 25 31 28 22 20 21 21 22 21
48 47 47 49 50 49 46 49 49 46 42 41 36 33 34 29 29 37 37 39 35 42 42 41 40 38 36 35 36 37 37 37 37 32 30 28 17 20 19 23 22 20 20 21
47 47 47 49 49 49 51 59 54 47 46 40 35 32 33 31 40 39 41 42 42 44 41 39 38 40 40 34 31 31 33 36 34 36 24 20 18 15 17 18 18 16 20 17
47 47 48 49 49 49 53 58 59 52 49 41 33 31 32 35 40 44 42 44 44 42 42 43 34 31 28 31 34 32 30 33 36 35 35 31 24 24 27 26 21 22 24 26
47 47 48 49 49 49 52 55 59 53 42 38 39 36 37 35 39 42 43 43 42 43 47 39 42 37 31 31 36 37 38 40 38 34 37 32 24 27 30 23 28 30 28 27
48 48 48 48 49 49 51 55 58 56 48 44 47 41 37 37 40 44 43 42 43 44 43 42 43 43 36 32 28 35 35 39 36 39 34 31 26 29 28 35 32 33 33 34
48 47 48 48 48 49 51 54 57 57 50 49 52 52 51 49 47 41 45 39 42 43 42 47 47 41 40 39 33 30 32 34 36 33 33 33 30 30 37 36 35 36 37 36
48 48 48 48 48 49 51 57 56 54 53 49 49 48 51 50 52 53 44 48 44 44 48 46 48 41 43 39 39 33 32 33 34 32 25 27 29 31 33 34 36 36 38 39
47 47 47 48 49 50 53 57 57 55 52 48 48 50 48 49 50 50 51 49 49 47 47 49 43 43 39 42 36 35 33 34 30 31 28 27 33 38 40 40 41 40 40 40
47 47 47 48 49 51 56 57 55 56 51 46 48 48 48 48 48 48 48 48 46 46 48 43 46 42 43 42 39 38 33 30 36 36 37 36 39 41 42 40 40 40 38 37
47 48 48 49 50 52 54 52 55 54 54 50 45 48 47 48 48 47 46 47 48 49 46 46 43 40 45 41 39 37 35 37 38 36 39 41 42 40 41 40 37 36 35 33
48 48 49 49 50 55 52 44 49 51 53 48 41 45 48 48 48 47 47 49 49 49 47 44 45 43 43 41 39 37 39 39 40 40 40 40 39 37 35 33 33 35 32 32
48 48 48 48 48 48 50 46 46 48 48 49 39 42 46 47 47 46 47 48 49 45 43 44 43 43 44 42 39 38 39 39 38 37 37 36 34 34 35 36 36 36 33 34
48 48 49 53 53 51 48 46 46 51 48 39 37 40 39 44 43 44 45 46 39 44 41 42 43 40 39 38 37 37 37 39 36 34 33 33 34 34 35 35 33 31 29 28
48 50 46 49 50 46 47 46 48 47 46 44 39 42 41 43 43 40 42 42 39 36 39 40 41 38 34 35 36 37 39 38 36 35 34 35 34 33 32 29 29 29 27 27
51 49 46 49 45 48 46 40 43 45 39 41 40 41 40 42 40 37 40 36 38 34 37 38 36 35 34 36 37 37 37 36 35 35 35 34 33 30 28 25 24 25 26 28
49 49 48 48 46 44 40 35 39 39 37 39 39 39 40 40 42 39 38 35 37 33 37 38 32 34 35 36 36 37 36 35 35 34 32 30 25 23 24 26 27 29 30 33
50 47 41 45 38 36 35 33 36 34 38 38 39 36 40 40 41 37 38 34 34 37 35 32 33 35 35 36 35 34 33 33 32 26 24 25 27 29 30 30 31 36 30 29
40 37 35 36 34 35 36 38 37 36 37 39 40 37 39 40 37 39 33 35 35 32 31 31 34 35 36 34 33 31 28 33 28 26 28 29 30 31 33 33 32 30 25 24
37 37 33 33 33 34 34 35 36 36 39 40 39 39 40 37 35 37 34 32 31 31 33 34 35 36 33 30 28 26 28 33 30 29 32 33 35 30 27 25 23 25 26 25
35 35 33 33 33 32 33 33 33 37 40 42 41 37 36 34 36 35 34 32 30 33 34 35 35 35 33 29 29 28 27 28 30 31 30 29 27 27 22 22 20 25 24 23
33 32 33 34 33 32 32 34 34 37 38 34 38 35 32 34 32 31 32 33 33 34 34 35 36 34 30 29 30 32 32 31 30 28 26 25 23 22 19 16 13 12 13 21

GFSNW_sfc_dewp_054.txt.gz
Dewpoint
48 49 50 50 52 51 50 47 36 52 56 43 38 39 38 37 34 27 30 28 23 21 20 21 19 19 19 27 25 25 26 27 27 24 23 23 23 25 23 33 23 30 32 23
48 48 50 50 52 51 50 42 45 56 53 36 35 36 37 36 32 28 30 31 26 25 23 22 23 23 36 29 28 28 30 29 28 22 24 26 24 21 21 25 33 29 35 25
48 48 50 50 51 51 50 41 43 51 52 41 34 36 36 35 35 28 28 29 27 25 25 26 26 25 35 36 32 41 41 29 24 25 20 25 26 24 21 23 36 31 28 21
47 48 49 50 51 51 51 44 39 43 43 44 38 39 35 33 32 30 30 29 28 25 27 24 25 27 37 36 38 35 34 27 22 20 20 22 25 23 21 20 23 27 27 19
46 48 49 49 50 51 49 41 39 45 42 42 39 36 39 34 31 29 30 32 29 27 28 26 26 29 37 34 37 35 35 33 32 31 28 26 26 24 23 22 21 18 21 19
47 48 49 49 50 51 48 45 47 44 42 41 37 38 40 36 35 32 29 33 32 32 32 36 40 38 37 34 38 37 35 38 37 34 28 26 29 28 24 22 21 22 22 25
47 48 48 49 50 50 48 46 52 48 41 38 36 37 39 38 34 34 33 37 35 38 42 42 40 38 37 36 36 38 38 39 41 38 32 28 22 20 18 19 18 17 17 20
47 48 48 48 50 50 50 50 55 50 43 37 35 39 41 40 39 34 36 42 44 45 43 43 40 40 39 36 32 34 36 40 39 35 30 23 21 18 17 18 19 22 22 22
47 47 47 47 48 50 50 50 55 56 48 41 34 38 40 39 39 43 45 45 47 46 46 45 37 37 31 29 31 29 29 39 40 39 35 29 27 24 23 23 28 23 23 28
47 47 46 47 47 47 49 51 54 54 49 44 40 37 38 40 43 44 44 44 44 46 48 37 40 41 27 32 35 36 39 41 38 36 36 35 28 27 28 27 33 31 30 29
46 46 46 47 47 47 49 50 52 52 53 44 44 41 39 39 44 45 45 43 44 49 42 39 46 44 39 34 31 37 37 39 36 40 34 32 28 26 28 37 38 35 34 38
46 46 46 47 48 48 49 49 53 55 54 52 53 52 51 50 51 46 47 43 43 46 46 47 50 40 41 43 38 29 34 36 39 38 37 38 30 35 39 37 36 36 39 38
46 46 46 47 48 48 49 50 54 57 55 49 48 48 51 50 51 55 47 50 46 47 52 50 50 40 46 39 43 35 32 34 39 36 28 30 31 33 37 37 39 39 40 39
46 46 47 48 48 49 49 50 54 57 55 46 48 50 48 49 51 52 53 51 54 53 53 51 42 42 43 46 39 39 35 35 32 32 30 29 38 40 41 41 42 40 40 40
47 47 48 48 48 49 50 52 54 58 54 45 48 48 48 48 49 50 49 52 51 51 47 39 48 46 47 46 43 42 34 32 40 41 39 39 41 41 41 41 40 38 36 33
47 48 48 48 48 49 52 50 54 56 56 51 44 48 47 47 48 49 48 49 51 50 48 48 46 43 48 41 43 35 37 37 39 38 40 42 41 39 39 37 36 34 33 32
47 47 48 48 49 52 51 48 50 49 54 49 40 44 48 48 47 49 48 50 50 49 47 47 46 44 44 40 43 38 38 39 40 40 41 39 39 34 34 34 32 34 34 35
47 47 48 48 48 49 50 50 48 49 50 49 37 38 44 47 47 46 48 48 48 46 43 45 44 43 47 43 39 39 39 39 37 37 38 36 35 36 36 36 35 33 32 32
48 48 49 51 52 50 50 46 48 54 49 39 36 36 37 45 44 45 46 46 38 45 40 42 44 39 38 39 38 37 38 38 35 34 34 35 35 35 35 32 32 31 29 28
48 51 50 42 48 46 47 48 50 46 46 45 40 44 40 43 43 41 42 42 39 36 40 42 41 38 36 36 37 38 38 38 36 35 35 35 34 33 31 30 29 28 26 27
52 49 42 47 47 50 46 40 39 42 37 42 42 42 41 43 40 37 40 37 38 35 37 39 36 36 35 37 37 38 37 37 36 36 36 35 34 31 27 25 27 29 30 30
50 49 49 49 48 43 38 35 38 39 37 39 40 41 41 41 44 39 37 35 37 34 39 36 33 34 36 37 36 36 36 36 35 35 33 31 26 25 27 28 30 32 32 29
50 46 39 44 37 35 34 32 36 34 37 38 39 36 40 41 41 37 36 34 35 39 35 32 34 35 36 36 35 35 35 35 33 27 26 27 29 30 32 30 30 30 27 26
40 37 34 35 34 35 35 35 36 35 36 39 39 38 39 39 35 36 33 36 35 32 31 32 35 35 35 34 34 33 29 30 28 28 29 31 30 28 28 28 27 26 23 24
36 37 32 32 33 34 34 34 35 35 39 40 39 39 39 36 34 36 34 32 31 32 33 35 36 36 35 34 32 28 31 30 30 30 32 32 30 27 25 24 23 25 24 23
35 34 33 33 33 33 33 33 33 36 37 42 42 36 33 34 36 34 32 32 31 34 34 35 36 34 32 30 30 30 29 30 31 31 30 27 26 25 23 21 19 24 23 20
33 32 33 33 33 32 32 33 34 37 38 34 38 34 32 36 33 31 33 32 33 34 34 35 35 34 31 30 32 32 32 32 31 29 28 25 24 24 21 17 13 14 17 19

GFSNW_sfc_dewp_057.txt.gz
Dewpoint
47 47 49 50 50 52 51 50 42 48 52 43 42 38 38 40 38 38 38 32 34 30 24 25 24 25 25 27 31 27 35 36 33 33 34 27 24 26 31 26 22 28 26 24
47 47 48 49 50 51 49 46 45 51 49 32 37 37 38 38 38 37 36 36 35 34 30 28 31 27 39 32 30 30 35 29 24 26 25 30 27 24 24 27 33 26 24 25
45 46 48 49 50 51 51 47 40 48 49 33 34 35 33 35 38 38 38 34 34 34 30 29 30 37 40 39 37 40 38 32 28 24 23 26 27 26 25 25 28 26 27 27
44 45 45 49 50 51 51 46 38 45 42 42 37 34 33 34 35 38 38 33 33 32 29 28 28 38 39 40 40 38 34 28 28 24 25 27 25 28 27 26 27 26 26 26
43 44 43 48 49 50 47 44 41 46 45 43 42 36 32 32 34 36 34 33 34 32 30 29 27 36 38 36 39 35 35 31 31 31 32 29 27 27 27 25 25 23 24 23
43 44 43 48 49 49 44 46 46 43 43 42 41 39 33 33 36 38 36 33 36 35 33 37 38 39 39 38 38 35 36 34 32 29 27 26 23 26 25 26 26 25 22 25
43 43 42 48 49 49 47 46 48 46 38 42 40 37 35 36 37 40 36 33 36 39 43 43 42 40 38 40 39 39 38 36 33 28 26 16 26 27 21 23 22 21 22 27
43 42 45 47 49 49 45 48 50 46 36 40 40 36 35 35 39 40 38 41 44 44 43 41 37 35 32 34 37 36 39 36 31 24 25 27 25 24 22 22 23 25 25 30
44 46 47 47 48 49 47 43 49 49 42 41 38 35 35 37 39 43 47 49 49 47 45 38 31 31 32 32 31 37 37 39 30 29 24 18 29 25 27 25 23 31 29 29
46 46 46 48 48 48 47 46 48 48 47 45 40 36 34 40 42 43 46 47 46 49 36 34 31 29 32 30 31 29 30 31 27 25 25 29 36 29 32 20 25 34 33 40
45 46 47 47 48 48 48 44 49 49 47 48 48 39 40 42 44 42 45 43 47 45 35 35 32 30 32 31 37 34 31 30 28 31 31 25 36 28 25 35 36 36 38 41
46 47 47 47 48 49 46 44 51 52 48 49 54 51 51 49 47 47 44 42 43 45 40 38 38 35 35 32 28 37 33 38 34 33 33 39 39 37 37 36 37 39 38 39
46 46 46 46 47 47 46 45 51 51 47 50 53 49 50 50 52 54 46 46 45 46 49 45 41 35 38 32 33 34 35 36 35 34 34 32 40 40 41 41 40 41 41 41
46 46 45 46 47 47 47 45 49 51 49 40 48 52 48 50 53 54 56 54 52 51 49 40 37 35 42 36 37 36 36 35 33 33 38 40 41 41 42 42 42 35 32 33
46 46 45 46 47 48 48 48 49 51 49 42 45 49 49 48 51 53 54 53 52 47 38 36 38 42 40 40 38 34 36 35 32 31 40 40 40 41 41 37 35 32 31 32
46 46 46 47 48 48 48 44 49 51 52 47 38 47 47 48 49 50 51 52 52 48 43 38 42 43 40 34 31 36 40 40 41 40 41 39 36 35 36 34 33 33 33 34
46 46 47 48 48 49 46 46 50 50 52 45 37 40 46 48 48 48 49 49 47 47 43 39 40 42 42 36 33 38 40 40 41 41 39 36 35 33 33 34 35 36 35 35
46 47 47 47 48 49 48 50 48 49 50 45 35 36 42 47 43 41 46 44 43 43 42 41 36 40 36 33 38 39 38 37 36 37 37 36 36 36 35 34 33 33 33 33
47 47 48 48 47 47 49 49 47 51 45 35 33 36 35 45 42 43 41 42 35 42 35 38 39 36 33 38 38 38 38 36 35 36 36 36 35 35 33 32 32 32 31 28
47 48 48 42 47 48 48 46 41 38 39 39 36 39 37 43 38 36 36 36 34 33 36 41 35 34 37 37 38 39 39 36 36 35 34 34 34 32 32 30 29 29 28 28
49 45 40 46 48 48 41 35 35 36 33 35 40 39 38 43 36 34 35 34 34 32 33 34 34 32 37 40 38 38 38 37 37 36 36 35 34 27 28 29 30 30 29 28
49 46 48 47 44 37 36 33 34 35 32 35 37 37 40 37 42 36 34 33 33 30 36 34 28 34 37 37 36 36 37 36 35 35 34 31 27 28 30 30 29 26 25 24
47 42 37 38 34 33 32 29 32 32 34 36 35 34 35 36 38 34 34 33 32 35 32 27 31 36 36 36 36 36 35 34 31 29 30 31 31 31 30 28 27 25 23 24
37 35 33 33 32 32 32 33 34 33 34 35 35 35 34 34 33 33 31 33 34 30 26 27 34 36 36 35 35 33 29 29 30 31 29 27 26 25 25 24 23 23 22 23
33 33 30 30 31 33 33 33 33 34 36 36 35 35 35 33 33 33 32 30 28 28 28 33 36 35 34 33 29 28 29 29 30 30 28 26 25 23 23 24 22 22 19 18
33 32 32 32 33 32 33 33 33 34 34 36 35 33 32 33 32 31 30 27 25 30 32 35 36 34 33 29 29 30 31 31 31 30 29 26 24 22 19 22 21 18 16 14
32 30 32 32 32 31 31 32 32 35 35 33 33 30 30 33 30 28 30 28 30 32 33 34 33 32 30 30 31 30 31 30 28 26 25 23 23 22 20 16 18 19 17 13

GFSNW_sfc_dewp_060.txt.gz
Dewpoint
43 43 45 46 47 50 50 45 41 50 52 41 39 37 37 38 36 40 40 40 36 28 26 25 25 24 24 30 33 29 34 33 29 29 32 34 29 28 29 26 20 27 24 21
43 43 44 46 48 49 47 43 44 50 49 36 33 36 38 38 34 37 38 37 36 33 29 24 28 28 38 33 31 31 34 31 27 28 28 29 30 25 26 31 29 23 22 23
43 44 44 47 47 49 47 45 39 46 46 41 32 33 35 37 37 37 38 38 39 35 32 30 27 34 38 41 36 40 36 31 26 26 25 25 25 27 25 25 25 24 26 25
43 44 45 46 47 49 46 46 39 41 40 40 34 33 34 34 34 35 38 37 36 36 31 28 28 38 37 39 38 36 32 26 28 27 27 28 28 26 27 25 26 25 24 27
43 44 45 46 47 49 44 43 42 43 42 39 36 33 32 32 32 32 29 34 37 36 31 28 27 36 36 33 36 33 34 27 28 27 30 28 26 26 26 26 25 24 25 24
43 44 45 46 46 49 43 42 45 43 38 39 38 33 31 31 31 34 31 36 37 36 36 33 31 38 38 36 34 34 34 33 29 26 26 27 25 26 25 25 26 25 22 23
44 44 45 45 46 47 45 40 46 43 37 40 39 36 34 32 31 30 36 32 35 37 43 41 39 38 40 40 39 38 36 34 30 27 25 19 28 29 27 25 24 24 28 31
44 44 43 45 45 45 42 44 45 46 36 41 42 38 38 36 33 35 31 39 41 43 42 38 33 34 33 36 36 36 39 35 30 24 25 27 26 24 17 20 22 28 30 29
43 43 43 44 44 44 43 43 48 47 43 40 41 41 39 36 35 37 43 47 49 48 43 35 30 29 30 32 30 35 36 36 32 31 21 18 27 26 26 25 22 31 31 31
43 43 43 42 43 43 46 44 48 44 43 47 41 40 38 37 37 39 45 45 45 47 36 33 29 29 33 29 28 26 29 30 27 23 20 24 29 31 30 18 21 34 38 36
43 43 43 43 43 48 46 44 48 44 44 45 50 42 38 36 35 40 44 43 43 42 35 35 35 29 32 32 34 30 28 28 28 28 19 22 34 29 25 29 36 40 40 40
43 43 43 44 47 47 46 42 47 48 44 44 49 50 51 43 37 45 45 41 44 45 39 38 38 34 31 31 30 37 30 30 30 31 30 34 37 34 37 37 38 38 39 41
44 45 47 47 46 47 45 44 46 45 44 45 49 49 49 50 50 50 45 45 47 46 47 44 41 33 36 30 30 34 36 40 36 35 35 38 40 41 40 40 40 39 40 40
46 46 47 46 46 48 45 43 47 48 47 39 45 53 48 50 53 53 51 51 51 49 45 39 37 34 39 33 34 33 36 36 34 37 40 40 40 41 41 34 34 33 32 35
46 46 47 47 47 48 47 47 46 49 46 40 45 50 49 50 53 53 53 52 51 46 38 35 38 40 39 38 36 34 35 34 32 32 39 37 39 40 37 33 33 33 32 33
46 46 46 46 47 46 45 40 46 48 49 41 37 47 49 50 51 50 49 49 49 48 43 40 42 44 37 31 29 37 40 41 39 41 39 38 36 35 34 33 34 33 33 33
45 45 46 46 46 46 42 40 48 46 49 42 37 39 47 49 48 46 47 47 45 46 45 41 41 42 39 32 30 38 41 40 37 36 35 34 34 33 35 35 35 34 32 33
45 46 45 45 47 47 44 50 49 50 47 46 34 38 42 46 42 41 44 41 42 42 41 40 37 40 36 32 38 39 38 39 37 36 37 34 34 34 33 33 32 32 30 26
46 46 47 47 46 45 44 50 49 49 47 35 34 36 35 43 41 41 40 39 35 39 35 37 38 34 31 36 38 37 38 38 36 36 35 35 34 33 32 32 32 27 26 27
46 45 44 39 46 49 48 47 44 39 39 38 35 38 37 41 36 35 35 35 34 34 33 39 31 33 36 38 39 39 37 37 36 35 34 33 32 32 32 31 29 26 26 27
44 42 39 46 49 47 42 36 35 35 31 35 39 37 38 42 35 34 34 33 33 32 34 34 33 32 36 38 39 37 38 38 38 36 35 33 32 30 29 28 28 28 28 25
46 46 47 46 42 36 35 32 33 32 31 35 36 36 37 37 40 35 33 32 32 29 36 33 31 33 38 38 38 38 38 38 37 36 32 30 29 29 28 26 25 25 23 22
46 41 40 38 34 32 28 28 30 31 33 35 35 34 34 36 37 33 33 31 30 31 29 29 30 36 37 37 36 35 34 33 31 29 30 31 30 29 25 22 23 24 22 19
37 36 32 33 32 31 31 32 33 33 34 35 35 34 34 33 34 33 32 32 32 23 19 26 34 36 36 36 33 30 30 30 30 30 29 28 27 26 25 23 23 22 19 17
32 32 29 29 31 32 32 33 33 34 35 34 33 34 34 33 33 32 29 31 28 26 26 32 36 36 36 32 30 30 30 29 27 27 26 25 24 23 22 22 21 21 19 16
33 31 31 32 32 32 32 33 33 34 34 34 34 33 31 31 32 30 28 26 25 30 32 35 35 32 31 29 29 30 30 28 26 25 24 23 23 21 20 19 18 18 16 13
31 29 31 32 32 31 31 32 32 34 33 32 28 29 30 31 29 28 30 27 29 32 33 35 31 30 30 31 31 31 29 28 27 25 24 21 20 22 19 16 16 17 17 15

GFSNW_sfc_dewp_063.txt.gz
Dewpoint
44 44 46 45 45 47 48 44 36 49 51 43 42 35 36 37 34 35 38 40 38 34 26 25 25 24 24 27 32 25 32 28 24 26 30 32 28 27 28 24 20 26 24 21
44 44 44 45 44 46 46 39 40 50 47 37 37 36 35 37 33 34 36 38 38 37 28 23 27 28 31 33 31 31 33 29 24 24 26 32 31 28 30 31 28 24 22 23
44 44 43 43 45 44 46 40 35 45 46 40 36 35 35 35 38 36 37 38 38 38 33 30 28 30 37 38 34 41 35 30 26 24 23 26 27 26 26 27 26 23 25 23
44 44 44 43 43 44 45 40 35 39 36 38 39 35 34 35 35 37 36 34 36 36 33 29 28 36 37 37 38 35 32 28 27 27 26 25 25 25 26 26 26 24 24 25
44 44 44 43 43 44 41 36 39 41 38 38 38 35 32 33 34 34 33 33 37 33 34 32 29 35 34 33 35 32 34 26 25 28 28 28 27 26 26 26 25 27 26 24
43 44 43 43 44 42 39 42 42 41 38 37 36 34 32 32 34 36 34 33 34 32 37 38 34 37 36 34 34 32 32 32 27 23 27 27 24 26 26 26 26 25 23 25
43 43 43 43 44 43 46 39 43 42 33 37 34 35 35 33 33 33 34 33 32 35 42 40 38 40 40 38 38 37 33 31 28 25 25 18 25 30 27 26 24 24 28 29
43 43 43 43 43 45 45 41 43 44 33 36 37 35 34 33 34 35 32 35 31 42 42 36 33 33 33 34 38 38 37 33 28 24 25 26 28 27 24 21 21 28 29 32
42 43 43 43 44 46 44 46 47 44 41 37 39 37 36 33 33 33 34 35 48 45 41 34 29 29 33 33 31 36 35 35 30 25 21 20 29 28 25 24 20 28 30 33
42 43 43 44 44 46 44 46 48 45 41 43 42 39 37 37 36 34 37 45 45 44 34 31 28 29 34 29 29 28 30 30 27 23 21 27 29 29 27 18 22 31 31 31
43 43 43 44 44 45 44 43 48 44 42 42 47 44 41 39 38 36 41 43 43 39 35 34 32 28 33 31 32 29 30 29 26 24 18 24 32 30 22 28 37 38 38 38
43 43 44 44 44 44 44 41 48 47 42 42 46 45 46 47 41 38 45 39 43 42 39 36 36 33 32 31 29 34 27 31 31 30 30 34 35 30 35 38 39 39 39 39
43 43 44 43 43 44 43 43 45 44 40 40 44 45 48 51 50 44 42 45 47 45 46 42 40 34 35 33 31 35 35 37 32 32 35 36 38 40 40 39 39 40 41 35
43 43 43 43 43 44 44 44 45 42 42 38 44 52 49 51 53 48 47 47 49 48 46 40 37 34 40 35 35 34 36 37 36 36 38 39 39 40 36 35 35 35 36 34
43 43 44 43 43 45 46 46 46 45 41 38 41 47 51 52 53 51 51 49 47 43 39 35 37 40 39 37 37 35 36 36 34 33 38 36 38 39 36 35 34 34 32 32
43 44 44 46 47 45 43 40 44 47 47 41 35 46 48 51 51 50 49 49 48 46 42 39 41 43 37 31 31 35 38 39 36 36 40 39 38 35 34 34 33 33 33 33
44 45 46 47 45 44 41 37 42 46 47 40 35 38 47 49 49 46 46 47 46 46 44 40 41 41 38 31 29 37 40 38 37 36 35 33 34 33 34 33 33 34 33 33
46 46 46 46 45 43 41 49 45 46 43 44 34 36 41 46 42 42 43 41 41 42 41 40 38 40 35 35 37 40 37 36 36 35 36 35 35 34 32 32 31 29 29 28
45 45 45 44 43 39 42 47 47 49 45 35 33 35 35 44 41 41 38 40 35 39 35 35 38 34 35 39 40 38 37 37 35 35 34 33 33 32 31 30 27 27 26 27
45 43 40 37 43 47 47 46 41 40 39 37 34 39 37 41 36 35 35 35 34 33 35 38 29 33 37 37 39 39 38 36 35 33 33 33 32 31 31 27 26 26 26 26
40 39 37 46 47 45 40 34 32 34 33 36 38 39 38 41 35 34 34 33 33 33 35 35 33 32 34 38 38 38 38 37 37 37 35 33 33 31 28 27 27 26 23 22
42 44 47 46 42 37 34 31 32 32 31 35 36 36 39 37 38 35 33 32 31 31 35 33 31 32 35 37 37 38 38 36 35 35 33 32 31 30 28 27 25 23 21 20
47 42 37 37 33 32 32 29 30 31 33 35 35 34 34 35 33 33 33 31 29 33 33 31 32 37 37 37 37 37 37 35 33 32 32 30 28 27 26 23 22 21 18 18
37 35 32 32 31 31 31 32 33 33 33 35 35 33 33 31 33 32 30 32 33 27 24 24 33 36 36 33 33 32 31 31 32 31 28 25 23 23 23 23 21 19 16 17
33 34 28 29 31 32 32 33 33 33 35 34 33 33 32 33 32 30 31 30 28 26 21 30 35 35 32 32 31 30 30 29 28 27 26 24 22 20 21 22 19 18 18 16
32 30 31 32 32 32 32 33 33 34 34 33 31 31 31 31 31 28 23 26 25 26 31 34 35 32 31 31 30 29 28 27 26 26 26 23 21 20 20 20 18 18 17 16
30 29 31 31 31 30 31 32 32 34 33 31 25 28 30 32 29 28 29 27 29 31 33 33 31 30 30 30 29 29 29 28 27 26 22 21 20 18 17 16 16 15 16 17

GFSNW_sfc_dewp_069.txt.gz
Dewpoint
47 47 48 47 46 45 45 41 32 44 48 38 38 33 34 35 34 37 37 37 37 36 28 27 27 26 27 28 28 25 32 31 26 26 29 30 29 30 30 30 24 27 25 23
47 47 48 47 46 46 42 37 37 46 42 31 32 34 34 35 34 35 35 35 37 39 35 26 29 29 32 29 30 30 33 28 22 20 25 31 30 29 29 30 30 27 30 25
47 47 47 47 46 46 43 38 31 39 41 35 31 32 32 33 35 36 35 35 37 36 35 35 29 29 33 34 31 39 35 30 26 21 21 27 29 30 30 30 30 28 27 26
47 47 48 47 46 45 42 39 35 37 32 32 32 32 31 31 32 36 37 36 36 35 32 34 30 34 37 37 40 36 35 28 28 25 23 26 27 27 29 28 29 28 27 25
47 47 48 46 46 45 41 35 36 36 36 33 32 32 32 32 32 33 33 35 34 34 35 34 32 33 36 35 35 35 34 30 30 27 28 26 26 26 28 28 26 25 26 26
47 47 48 46 45 44 40 40 39 36 33 33 30 28 30 33 33 35 34 34 34 35 33 37 37 38 37 37 36 35 33 32 30 26 27 28 28 29 28 28 28 29 26 28
47 47 47 45 45 43 42 38 39 37 29 34 31 29 31 32 34 34 36 36 34 36 39 39 39 39 38 38 37 37 34 32 31 30 27 25 28 30 28 29 29 29 28 28
47 47 46 45 44 43 38 38 37 38 31 31 34 32 29 36 36 34 35 38 39 41 40 36 32 32 34 35 37 36 35 33 30 31 27 26 25 28 29 29 23 29 28 27
47 47 46 45 44 44 38 39 41 40 35 33 34 34 31 32 33 35 36 40 43 41 37 35 30 24 32 33 33 35 33 34 35 28 28 24 29 28 29 27 25 28 29 33
47 47 45 45 44 44 38 39 42 40 37 39 39 35 34 33 35 34 37 37 41 43 34 33 32 33 34 33 32 33 33 32 31 28 32 30 31 28 29 29 28 28 32 35
46 46 45 44 44 44 39 38 43 39 37 38 40 42 38 34 34 32 37 37 39 39 34 34 33 33 35 35 34 34 33 32 32 30 32 28 33 26 28 34 33 32 35 37
46 45 45 44 44 44 41 37 43 43 39 39 44 44 43 39 37 36 38 36 37 39 37 36 36 35 34 34 29 34 34 35 34 33 34 39 34 35 34 35 36 37 36 37
45 45 45 44 43 44 41 40 42 40 37 35 38 39 44 45 44 41 39 42 43 42 44 41 40 35 37 34 34 35 35 37 36 35 35 35 37 36 38 36 38 39 39 35
45 45 44 44 43 44 41 40 42 41 40 33 37 47 41 48 46 44 45 44 47 46 46 40 37 38 39 37 37 37 36 37 35 35 35 39 39 41 39 39 41 38 35 34
45 44 44 44 44 43 42 43 43 43 41 35 36 42 45 51 48 47 46 48 46 45 41 36 40 41 40 39 38 37 38 36 35 35 37 36 34 40 41 39 40 35 33 32
44 44 44 43 43 43 41 37 43 43 44 38 33 43 43 50 50 49 46 45 46 46 42 40 42 43 41 37 37 36 38 39 39 37 41 39 37 37 37 38 37 33 33 32
43 43 43 43 44 42 39 37 42 44 46 38 33 34 45 49 48 47 46 45 45 45 43 41 42 43 40 35 36 35 39 39 39 38 38 36 35 36 35 35 34 34 32 31
43 43 44 44 43 44 42 46 45 44 42 41 32 34 39 47 43 41 44 42 43 42 42 41 41 41 37 37 36 38 37 37 37 36 36 37 34 34 33 33 33 32 31 31
43 43 43 43 42 39 41 46 46 47 42 34 33 32 35 44 41 41 39 41 36 41 37 39 41 37 37 39 39 37 37 37 36 35 34 34 34 33 32 32 31 31 30 29
43 40 38 34 40 46 46 44 39 39 41 38 34 38 36 41 38 36 37 35 34 34 37 41 37 36 38 39 40 41 40 37 35 33 32 32 32 32 32 31 31 30 29 27
42 39 36 42 46 42 38 33 32 34 32 36 37 39 37 40 35 34 35 33 33 34 36 37 35 35 36 38 39 39 37 36 36 35 34 33 33 31 30 30 30 30 27 25
40 41 45 44 40 35 33 31 32 33 32 35 36 37 39 36 39 35 34 33 33 32 36 35 33 34 36 37 36 36 36 35 34 34 32 30 29 29 29 28 27 27 26 26
43 38 35 34 33 30 28 26 29 31 33 35 35 34 36 35 36 33 33 32 32 35 33 33 32 36 37 36 35 34 34 33 32 30 30 30 29 29 28 26 27 27 26 25
34 33 31 32 30 32 32 29 32 33 34 34 35 33 34 33 33 32 32 32 32 30 29 28 33 34 34 34 33 32 31 31 30 29 28 27 25 25 25 25 25 25 23 23
31 32 28 29 31 32 32 33 34 33 34 34 33 34 34 32 31 32 32 30 28 28 27 30 32 32 32 32 31 30 29 28 27 26 25 24 24 23 23 24 24 22 21 20
32 29 30 31 32 31 31 32 32 33 33 33 34 32 31 30 29 28 27 25 25 28 30 32 32 30 29 28 28 28 28 27 26 26 25 24 23 22 21 20 19 20 19 19
30 28 29 28 29 28 29 30 30 33 33 31 32 30 30 32 28 26 28 25 27 30 30 30 30 28 28 28 27 27 26 25 25 25 24 22 20 18 17 16 15 16 17 20

GFSNW_sfc_dewp_075.txt.gz
Dewpoint
47 48 48 48 47 47 46 42 34 41 43 36 36 32 30 31 24 23 19 23 26 23 25 29 25 23 22 24 24 24 25 25 23 22 23 23 23 25 25 26 22 24 24 22
47 47 47 48 48 47 45 37 37 44 43 30 30 30 28 29 26 22 24 28 30 35 30 30 28 27 28 24 25 26 26 24 22 21 22 26 25 25 25 27 27 25 32 26
47 47 47 48 48 48 45 37 32 39 41 32 28 26 26 26 28 27 20 27 27 30 33 35 29 29 30 33 26 38 35 25 24 22 20 22 23 21 22 24 31 27 24 20
47 47 47 47 47 48 45 38 34 32 31 33 31 27 23 24 23 26 26 23 26 28 27 29 28 32 31 32 35 32 31 25 23 20 18 17 16 18 19 19 22 24 22 19
46 47 47 47 47 48 42 35 30 30 27 32 31 29 26 22 21 21 23 27 25 26 24 30 22 28 34 30 33 30 31 28 25 22 21 18 17 15 17 16 16 17 18 18
44 45 47 47 47 47 41 41 34 32 29 30 30 30 27 24 22 24 23 25 27 27 27 36 37 36 35 35 34 34 32 32 27 27 22 22 27 21 19 19 19 21 21 23
45 45 45 47 47 47 45 40 34 35 27 25 28 28 28 25 22 25 24 27 28 28 31 37 35 37 34 32 30 32 34 32 32 33 34 29 25 24 22 22 20 22 22 23
45 45 44 46 47 47 45 40 38 33 36 25 24 28 29 27 28 27 30 26 30 31 35 33 29 32 34 31 31 29 30 35 35 36 31 26 21 25 26 23 22 23 23 23
44 45 44 45 47 47 45 41 42 35 34 29 24 26 30 28 27 28 31 34 39 39 33 32 25 24 19 14 28 32 26 36 38 36 31 28 27 26 27 26 28 25 25 26
45 46 45 45 47 47 45 42 47 39 30 29 29 29 32 32 30 30 27 34 37 40 37 38 34 27 15 15 28 36 37 37 38 36 36 29 25 26 28 28 29 27 26 26
45 46 45 45 47 47 45 43 46 39 33 33 32 35 32 33 34 31 30 36 38 40 37 37 32 32 23 21 16 23 36 35 38 37 38 34 32 31 29 33 35 33 33 31
45 46 45 46 47 46 45 42 45 43 40 38 43 42 43 37 35 32 34 35 35 35 35 39 36 40 43 27 26 18 32 34 36 34 34 37 35 33 37 34 35 35 35 32
45 45 45 46 46 46 45 43 43 43 41 39 37 37 40 44 44 43 40 40 35 36 39 35 36 36 31 39 33 25 24 26 34 33 31 34 35 37 36 36 37 35 37 35
45 45 45 46 46 45 44 41 42 41 36 35 31 35 38 37 42 42 44 45 44 41 37 44 41 41 27 35 28 29 27 29 32 31 30 31 36 39 39 37 38 36 37 36
45 45 46 46 45 44 45 43 42 39 32 34 31 35 35 40 41 41 41 43 45 44 44 44 40 33 30 33 33 32 27 28 34 35 35 36 35 38 40 40 39 39 39 37
44 45 46 45 44 44 40 37 42 37 40 37 34 39 33 35 39 40 40 42 45 44 37 43 36 32 33 42 34 29 26 26 32 33 36 40 42 39 40 41 41 40 40 38
45 46 45 44 43 39 36 37 38 39 38 38 34 35 39 34 34 37 40 42 43 45 44 42 39 38 38 44 38 24 26 28 29 35 40 39 39 38 39 39 38 39 38 37
45 43 43 43 42 43 41 45 41 43 37 37 33 34 37 41 39 37 39 42 44 43 43 44 42 43 45 38 32 30 29 33 38 40 41 40 40 38 37 37 36 36 35 35
43 43 43 42 41 38 42 44 42 41 36 34 33 33 31 37 41 41 43 44 41 41 42 41 42 42 40 38 35 33 34 34 35 38 38 37 38 37 36 36 36 35 34 33
42 41 38 36 42 44 42 40 38 37 39 39 35 38 34 36 33 40 42 42 39 35 41 38 41 39 36 40 41 42 42 40 40 39 38 38 37 37 37 36 36 35 34 34
38 38 38 42 44 41 39 34 34 35 34 37 35 36 35 39 34 34 39 37 38 35 38 38 36 35 37 40 41 41 41 41 39 39 39 38 39 38 37 36 36 35 34 32
41 42 43 43 39 37 34 34 35 33 31 37 36 36 37 38 36 32 37 36 36 35 41 41 35 36 37 38 39 40 40 38 37 37 37 37 35 35 33 32 31 30 29 29
44 39 37 37 36 30 30 28 31 33 37 39 39 36 39 38 35 32 35 34 34 38 35 33 32 35 35 35 35 35 35 35 34 33 33 33 32 32 31 30 30 30 28 28
38 36 31 34 30 34 34 34 36 38 38 39 38 36 35 35 32 33 32 34 34 33 32 30 32 32 32 32 31 30 30 29 29 29 28 28 27 28 29 29 29 28 27 28
34 36 30 31 34 34 34 35 36 35 38 40 39 37 36 33 33 34 33 32 29 30 28 29 30 31 30 29 28 27 27 27 27 27 27 27 27 26 27 28 28 26 26 25
34 31 31 30 34 32 31 30 32 33 34 37 39 34 33 33 34 32 29 30 26 27 29 30 28 27 27 26 27 27 27 27 27 27 27 27 26 26 25 26 25 26 26 25
34 28 30 30 32 29 27 26 27 31 33 33 34 32 31 35 30 27 28 25 26 28 28 29 29 28 28 28 28 28 29 28 28 28 26 26 26 25 22 22 22 21 20 22

GFSNW_sfc_dewp_081.txt.gz
Dewpoint
46 46 47 47 47 47 47 41 32 43 43 35 35 29 26 30 25 25 23 23 23 24 25 25 25 32 30 28 27 23 27 30 25 23 25 23 24 25 27 30 27 31 29 26
45 46 47 47 47 48 44 36 37 44 43 29 30 29 28 29 28 27 25 25 24 25 24 26 29 34 34 29 31 30 29 29 25 23 23 25 23 24 25 28 31 29 28 29
46 47 47 47 47 48 45 34 30 38 40 36 31 30 28 27 30 29 28 26 24 23 23 27 30 36 38 34 35 41 36 30 25 23 24 27 26 23 24 26 28 27 28 28
46 46 47 47 47 48 46 35 32 35 30 34 31 30 27 27 26 27 27 25 25 25 23 27 30 38 38 36 40 39 35 30 28 28 24 24 25 24 23 22 27 27 29 28
46 46 46 47 47 48 43 31 33 35 31 33 34 32 30 29 26 24 23 23 23 25 26 27 30 36 37 38 37 38 37 29 32 28 28 25 24 24 23 23 23 21 22 24
46 46 46 47 47 47 42 40 38 35 33 32 32 31 28 29 29 27 24 23 22 22 24 30 37 44 44 42 38 35 36 35 32 28 29 28 25 25 23 25 24 24 21 22
46 46 47 47 47 47 45 42 38 34 31 30 31 29 31 29 29 27 27 25 22 23 30 44 41 41 41 40 38 37 37 36 36 31 30 25 27 26 25 25 25 24 24 25
45 45 46 46 45 46 44 44 38 35 30 33 32 31 30 30 29 29 27 26 27 25 39 36 35 35 37 35 37 39 39 37 31 31 29 31 30 27 26 25 25 27 26 27
45 45 45 45 45 45 44 42 44 37 32 29 33 31 30 29 27 27 27 30 30 33 29 28 29 29 34 31 31 36 38 39 35 32 30 27 32 32 30 31 26 29 31 30
44 44 45 45 45 45 44 41 43 41 35 32 30 34 32 31 29 27 27 30 31 35 31 26 30 29 34 31 29 31 33 32 30 32 31 33 33 32 34 26 27 32 33 33
44 44 44 45 45 45 44 41 44 41 38 36 33 38 37 36 33 29 29 29 31 35 30 30 32 28 32 31 28 33 33 32 31 32 29 29 35 32 29 32 35 35 36 36
45 45 45 44 45 44 44 39 44 45 41 39 44 40 42 39 38 35 33 29 30 38 36 33 33 28 29 28 24 33 34 35 35 34 33 40 42 41 43 43 40 38 37 38
45 45 45 45 45 45 44 41 42 42 40 40 40 39 36 41 42 46 36 35 31 38 42 38 36 29 33 26 27 25 34 36 34 34 33 32 40 44 39 39 39 39 39 39
45 45 45 45 46 45 45 42 43 42 37 34 36 41 40 42 44 44 44 40 42 42 43 40 36 30 33 29 30 32 30 34 34 36 36 36 36 39 37 37 38 41 38 38
44 45 45 46 46 45 45 44 44 45 41 34 35 38 40 43 42 41 43 41 40 39 36 35 36 38 36 36 34 32 31 30 33 33 36 35 35 40 41 37 38 41 41 38
44 45 45 45 46 46 43 39 44 45 46 37 32 37 38 40 39 38 39 40 40 40 38 36 41 40 39 30 31 33 30 30 30 31 36 41 42 42 41 41 42 42 42 40
45 45 45 46 46 44 39 37 43 45 47 38 32 32 38 40 37 37 38 38 39 39 39 37 39 38 40 30 29 31 33 31 31 41 40 40 41 40 40 39 39 40 39 39
45 46 45 45 44 45 43 45 45 46 42 40 29 30 35 38 35 33 38 36 38 37 39 39 39 38 39 34 34 33 32 32 36 41 42 41 40 38 37 38 38 37 36 36
46 46 45 44 42 40 42 45 46 46 40 30 30 27 27 36 35 37 37 36 29 38 33 36 38 37 34 35 32 32 33 33 32 34 40 40 38 38 37 37 36 35 35 31
43 41 37 32 41 44 43 40 37 37 37 35 28 33 28 34 33 32 30 33 30 32 34 39 34 35 38 39 43 43 42 42 41 39 39 39 38 37 35 34 32 30 28 27
42 38 36 42 45 42 38 32 30 32 30 32 33 33 30 36 30 32 34 32 32 30 33 32 33 31 39 43 41 40 40 38 37 36 36 38 36 33 30 29 28 27 26 24
40 39 43 42 39 35 32 30 31 28 26 31 31 31 35 34 37 31 29 32 33 24 35 29 28 34 34 34 34 34 34 35 34 33 33 32 30 30 29 27 26 25 25 24
41 39 35 35 32 26 19 24 22 26 29 33 33 33 34 34 36 32 31 30 29 34 25 26 30 32 31 31 31 30 30 30 29 29 28 28 27 27 26 25 25 25 24 24
35 30 28 30 28 30 30 31 30 33 34 33 33 34 33 32 30 32 29 32 33 28 28 26 28 28 28 28 29 28 27 27 27 26 26 26 25 25 25 25 25 24 23 23
31 30 26 26 31 30 29 30 32 30 33 34 33 32 32 31 31 31 32 29 27 25 22 24 26 26 26 26 26 26 25 25 25 24 24 24 23 23 23 24 24 24 23 22
26 27 26 28 28 24 24 24 26 29 29 32 34 32 31 31 31 29 24 25 19 22 24 25 25 25 26 26 26 26 26 25 25 25 24 24 23 23 23 24 23 23 23 22
28 23 26 27 27 22 23 25 25 29 28 32 32 27 25 31 27 21 22 18 22 23 24 26 26 26 26 27 27 26 25 25 25 24 24 24 24 24 22 21 22 21 21 21

GFSNW_sfc_dewp_084.txt.gz
Dewpoint
44 45 45 45 46 47 45 41 32 44 43 33 33 29 25 28 24 26 24 25 21 21 18 21 22 23 29 30 34 29 24 25 23 23 25 25 25 25 29 30 28 30 28 25
44 45 45 46 46 47 44 37 36 44 42 28 29 30 30 29 25 26 27 25 26 27 25 22 22 28 31 37 39 29 28 25 25 22 24 26 25 25 27 33 33 29 28 27
45 45 45 46 46 47 44 33 30 37 40 36 28 28 30 29 29 29 28 26 27 27 26 25 26 27 32 40 37 42 35 30 22 20 22 27 27 26 25 28 28 26 29 26
45 46 46 46 46 47 44 34 32 35 29 32 32 29 27 28 26 28 29 28 28 26 25 25 24 25 37 36 39 40 36 28 28 27 26 26 25 25 25 24 27 25 26 27
45 46 46 46 46 47 43 32 34 36 30 31 34 30 28 27 26 27 25 26 25 25 25 24 21 28 37 35 38 39 37 29 29 28 28 27 29 28 25 27 25 25 28 27
45 45 46 46 46 46 41 40 38 36 31 30 29 30 30 28 29 28 28 27 26 26 25 26 26 33 41 41 39 37 38 34 28 25 28 28 28 29 28 28 28 26 24 26
45 45 45 46 46 46 43 42 39 34 29 30 29 28 30 31 28 30 30 29 28 27 26 33 40 39 39 39 37 41 39 37 33 28 29 25 31 30 29 28 27 26 23 24
45 45 45 46 46 47 44 44 40 35 29 31 31 30 29 29 30 30 28 30 30 30 28 32 30 30 32 33 35 37 43 38 32 31 28 29 30 30 26 27 25 27 24 24
45 45 45 45 45 46 46 44 44 40 33 30 33 32 31 30 29 30 30 31 32 31 28 29 24 22 31 31 35 39 40 38 34 32 28 24 29 31 33 30 25 29 27 27
45 45 45 45 46 46 44 43 44 40 34 33 32 31 32 33 30 29 29 30 30 31 28 26 23 23 31 28 30 32 31 31 31 31 30 31 35 36 33 28 27 32 30 31
44 44 45 45 46 46 44 42 44 39 34 37 33 33 35 34 32 29 30 30 30 32 26 25 26 24 29 32 32 34 33 29 25 29 27 27 36 36 30 33 37 38 35 35
44 44 44 44 45 46 45 40 43 42 37 37 41 36 36 36 35 35 34 30 28 33 30 29 30 27 29 30 27 30 32 33 31 30 30 36 40 41 41 42 40 40 40 38
44 44 44 44 44 45 44 42 42 41 37 35 36 37 35 40 42 44 37 35 33 38 38 36 33 27 32 27 28 28 34 37 34 34 34 36 38 43 42 38 38 38 39 41
45 45 45 45 44 44 44 42 42 39 37 31 34 41 38 42 43 44 45 43 42 40 40 34 33 29 35 29 29 29 27 35 33 32 34 36 37 37 36 36 39 39 41 41
46 45 45 45 46 45 44 43 43 41 35 31 34 38 41 39 39 41 44 45 41 38 34 33 35 37 36 36 34 28 30 33 34 33 36 36 32 37 39 39 37 39 40 39
45 45 45 45 46 45 43 37 42 42 41 36 31 38 40 41 39 41 43 43 42 39 36 34 38 41 38 33 30 31 30 31 33 33 33 37 41 42 42 41 41 41 42 42
45 45 45 46 45 44 37 35 40 43 43 35 33 33 40 42 40 41 40 39 40 38 35 33 35 37 38 34 31 34 35 32 35 37 41 40 41 40 40 40 38 38 37 38
45 45 45 45 45 43 39 43 43 43 40 37 31 33 35 40 36 33 38 34 36 35 34 34 34 35 35 30 33 34 35 34 34 40 41 40 39 38 38 37 36 33 30 29
45 45 45 43 42 39 42 45 44 46 39 31 26 25 29 35 35 35 34 34 30 34 30 31 35 32 30 34 36 37 35 33 34 41 39 38 38 37 37 35 31 29 27 26
43 41 37 32 41 45 44 40 35 37 38 32 23 30 30 34 32 33 33 30 26 27 33 36 29 30 32 40 40 38 37 39 38 39 37 37 35 33 31 29 28 27 25 24
39 37 33 43 46 41 36 31 31 32 30 31 31 31 31 35 29 30 28 31 27 27 28 31 31 31 36 38 37 37 35 34 34 35 35 34 33 30 28 26 26 25 23 23
40 40 42 41 38 34 29 27 30 27 25 30 30 30 32 31 33 28 31 28 31 25 32 27 30 33 34 33 34 35 34 33 33 31 30 30 28 27 26 25 24 24 23 23
41 37 34 32 29 21 16 20 26 22 30 30 32 32 32 34 35 30 31 28 27 33 27 25 29 31 32 31 30 30 30 30 28 28 27 27 26 26 25 24 24 24 23 23
34 25 25 25 25 27 27 30 31 31 32 29 32 32 32 32 31 31 28 28 32 28 26 26 28 28 28 29 29 27 26 27 27 25 25 25 24 24 24 24 24 23 22 22
26 26 22 24 27 27 26 28 30 28 31 33 32 33 33 30 30 31 30 29 27 25 23 24 26 27 26 26 26 25 25 25 24 24 23 23 22 22 22 23 23 22 21 21
25 23 22 24 22 21 23 24 25 28 28 32 33 31 29 29 29 26 20 22 18 19 20 24 26 25 25 25 25 25 25 24 23 23 23 23 22 21 22 23 22 21 21 19
20 19 24 23 20 18 23 24 25 28 28 31 31 24 22 28 23 17 21 16 19 23 23 25 25 24 24 24 24 24 23 23 23 23 23 23 23 23 21 19 21 21 21 20

GFSNW_sfc_dewp_087.txt.gz
Dewpoint
44 44 44 45 45 45 44 39 31 42 43 33 31 26 23 26 24 26 27 26 21 22 22 19 19 22 28 31 34 32 36 27 21 20 23 25 24 23 26 27 26 29 27 25
44 44 44 44 44 45 40 35 35 43 41 26 27 26 25 26 23 23 26 27 27 27 25 23 24 23 25 28 37 36 38 34 23 22 22 23 23 25 27 32 31 28 26 26
44 44 44 44 45 46 43 35 29 35 38 35 29 26 26 28 31 27 26 25 27 26 24 25 26 26 29 33 37 41 39 38 33 21 21 23 25 24 26 30 28 27 28 28
44 44 44 45 45 46 43 36 32 34 28 31 32 27 26 26 26 31 31 29 28 27 25 25 24 25 25 30 40 37 38 34 34 29 22 22 27 26 26 26 27 26 27 28
43 44 44 45 45 46 41 33 33 37 31 32 33 33 29 26 26 26 26 26 25 28 27 25 22 22 23 32 39 37 38 35 36 28 28 22 21 23 28 29 28 26 26 26
43 44 44 44 46 45 40 40 39 37 33 30 30 29 29 28 27 28 28 28 27 27 27 28 28 28 28 31 34 37 35 35 33 27 28 28 27 28 26 25 29 26 25 28
44 44 44 45 46 45 43 41 39 34 28 31 29 28 30 30 28 28 28 28 27 28 30 32 32 30 28 27 31 38 35 35 33 30 28 25 28 30 30 30 28 30 27 26
45 44 45 45 45 46 44 43 40 35 29 29 30 28 28 30 31 30 29 29 31 32 30 30 27 28 31 32 35 35 37 36 32 30 27 28 30 31 30 30 29 30 28 26
44 44 44 45 46 46 44 43 44 39 33 29 31 29 28 27 28 29 31 32 32 32 29 28 26 20 25 28 34 38 36 37 34 32 28 23 28 31 34 35 30 30 28 32
45 45 45 45 45 45 44 43 44 40 34 33 32 30 29 30 30 29 30 32 32 32 28 24 23 23 27 23 25 33 34 34 32 31 30 30 34 35 38 33 31 35 31 31
45 45 45 45 45 46 46 43 44 40 35 36 34 34 33 32 32 29 30 30 30 30 25 22 24 23 25 25 29 31 32 31 30 31 27 24 33 39 31 34 41 38 35 33
44 45 45 45 45 45 45 40 44 44 38 37 39 39 37 34 33 33 33 31 30 33 28 27 26 23 25 26 23 33 29 31 32 32 29 34 35 39 41 41 39 40 39 38
44 44 44 45 45 46 45 42 42 41 35 35 36 33 36 40 38 41 34 36 33 35 37 33 31 24 27 22 27 28 32 36 35 34 33 34 35 38 43 42 38 38 40 42
44 44 44 44 45 45 45 43 43 39 37 30 30 34 32 37 39 43 41 38 43 41 41 34 29 27 32 27 27 31 30 37 35 32 33 33 33 37 39 40 40 40 39 41
46 45 45 45 44 44 44 44 44 39 33 27 27 36 35 33 37 39 42 40 40 39 35 34 32 34 33 34 34 31 30 29 31 28 32 32 33 34 40 39 39 40 39 39
46 45 46 45 44 44 42 34 43 41 40 33 29 35 37 40 40 40 40 41 40 41 38 35 36 38 35 29 29 31 30 31 34 33 34 36 39 41 41 41 42 43 42 41
45 44 44 45 44 44 37 34 40 43 41 35 30 33 37 40 39 39 40 41 41 40 38 35 34 36 37 32 28 32 33 32 32 36 39 39 39 39 39 38 36 36 34 36
44 44 45 45 45 42 40 42 43 41 39 37 29 32 35 39 37 36 40 38 39 38 37 36 34 33 32 28 32 32 31 32 33 35 36 39 41 39 37 34 31 29 27 26
45 45 44 43 40 38 41 44 42 43 39 30 30 28 28 38 36 38 36 37 32 33 31 32 33 29 28 31 32 39 39 38 38 38 39 39 38 37 34 31 29 26 25 26
43 41 37 32 41 44 44 41 36 37 38 34 28 33 31 35 33 32 32 28 26 28 32 34 30 29 33 38 40 37 36 35 35 37 37 35 33 31 28 27 26 25 24 23
41 36 36 42 43 39 35 31 31 32 30 32 33 32 32 34 29 31 28 30 27 25 26 28 29 28 32 37 37 35 34 33 32 33 35 34 31 28 26 25 24 24 23 22
40 40 43 41 37 33 30 27 30 27 26 29 31 30 32 33 30 29 31 25 30 24 30 30 26 31 34 34 34 33 33 32 30 29 28 27 26 25 24 24 23 23 23 22
39 37 33 33 29 21 19 22 26 25 25 29 32 30 32 33 32 28 28 26 25 31 30 26 29 32 31 31 31 30 29 29 28 27 26 26 25 25 24 23 23 23 22 21
32 25 20 18 17 24 24 27 30 30 31 31 32 31 30 32 29 29 26 25 31 27 22 24 28 28 28 29 29 28 27 26 26 25 25 24 23 23 23 23 22 21 20 20
25 25 20 20 25 25 26 27 28 27 30 33 32 32 32 31 26 29 27 27 23 25 23 23 26 27 26 26 26 25 24 24 24 24 23 23 23 22 21 22 22 20 19 18
24 21 20 22 21 20 22 23 24 28 28 32 33 31 28 24 26 26 21 20 15 17 21 24 26 25 25 25 25 24 24 23 23 23 23 22 21 20 20 21 21 20 19 18
20 19 22 21 17 19 21 22 23 27 27 30 29 23 21 27 21 17 20 15 19 21 23 25 25 23 23 23 23 23 23 22 22 22 22 21 22 21 19 17 19 19 18 17

GFSNW_sfc_dewp_090.txt.gz
Dewpoint
42 42 43 43 44 44 41 38 30 41 43 32 32 24 23 25 22 25 25 24 20 17 19 19 17 20 22 19 20 27 38 36 26 24 23 23 23 22 23 22 22 28 24 21
41 42 43 43 44 44 38 34 34 43 40 25 26 25 23 24 23 22 25 27 27 27 26 23 24 23 26 31 33 34 33 34 28 24 23 25 22 23 25 30 30 23 24 24
41 41 42 43 44 44 40 33 28 33 37 35 26 25 24 23 28 25 24 26 26 24 24 25 25 26 27 28 25 40 36 32 30 28 30 33 29 23 23 27 27 24 25 26
40 41 42 43 43 44 41 35 30 32 25 29 30 28 25 23 23 29 30 27 25 24 23 25 24 25 26 27 29 37 35 29 28 31 33 34 35 28 22 22 25 25 25 27
43 43 43 43 43 44 39 32 32 34 28 30 29 29 26 24 24 24 29 30 28 29 27 26 24 25 25 24 35 36 38 28 33 30 31 34 32 27 25 27 26 27 27 26
42 43 43 43 43 43 38 39 39 35 29 27 27 26 27 27 26 30 27 29 30 29 28 30 29 31 30 29 26 26 33 33 33 27 32 32 26 25 23 23 29 28 25 27
43 43 43 43 43 44 41 41 37 33 26 30 27 27 30 29 28 28 29 30 31 31 32 33 32 31 30 29 28 29 28 34 33 30 30 26 29 28 26 26 26 28 28 28
43 43 43 43 43 44 42 42 39 34 28 30 29 27 27 28 30 29 29 28 29 32 32 33 30 27 29 30 28 27 28 31 30 29 30 31 32 30 29 29 26 31 30 30
43 43 44 44 44 44 43 42 42 38 33 27 28 32 31 29 29 30 31 32 33 33 32 30 24 21 24 23 29 31 31 33 31 31 26 22 31 34 35 34 29 32 32 32
44 44 44 44 45 45 44 42 43 40 33 33 30 29 29 29 29 28 30 31 32 32 31 26 24 23 26 21 23 29 31 32 29 29 29 30 35 38 38 29 30 35 36 33
44 44 44 44 45 45 44 41 44 39 34 37 33 33 31 30 30 28 30 32 31 32 28 25 24 23 25 23 21 24 27 30 30 32 29 26 35 39 37 34 40 39 38 37
45 45 45 44 45 46 45 40 44 44 38 37 39 37 34 32 32 30 32 31 31 33 30 27 25 23 23 25 22 27 27 32 30 33 32 35 34 34 37 42 40 40 39 39
44 44 45 45 45 45 45 42 43 42 34 35 37 35 36 40 38 37 32 33 34 36 39 36 31 24 26 20 24 26 28 33 32 33 32 33 34 36 38 39 40 43 40 42
44 44 44 44 45 45 44 42 43 40 37 31 32 38 35 37 39 39 39 35 39 39 39 35 34 27 30 26 24 26 28 32 31 32 34 34 32 34 35 38 42 41 43 42
45 45 44 44 45 45 44 43 43 41 35 30 28 34 35 33 36 37 38 39 38 38 36 34 33 35 35 32 32 29 30 27 29 28 32 32 32 35 39 38 40 41 41 41
45 45 45 45 44 44 43 36 43 41 39 34 27 33 35 35 33 35 36 36 38 40 37 34 34 36 35 30 26 28 27 29 31 30 35 35 35 39 40 42 38 34 33 37
45 45 45 45 44 44 36 33 40 43 42 35 27 25 35 36 34 34 37 37 37 38 38 36 35 34 37 26 28 31 32 33 34 33 34 30 35 39 37 37 35 34 32 30
45 45 45 45 45 42 39 42 43 42 39 37 24 22 35 38 33 34 39 36 37 38 36 37 35 35 33 30 31 31 31 31 31 32 34 34 38 36 33 32 31 30 28 28
45 45 45 42 39 37 40 44 42 44 38 30 28 20 28 38 36 38 37 38 31 35 32 33 36 33 30 30 30 31 31 35 35 39 39 39 36 34 32 31 29 28 26 25
42 39 35 32 40 44 43 40 36 35 37 35 25 33 30 36 34 33 32 34 32 29 32 35 32 30 31 32 33 33 38 37 36 37 37 35 32 29 27 26 26 25 24 23
40 37 36 41 42 39 36 30 29 32 29 31 31 32 32 35 31 31 32 31 29 22 25 28 28 26 30 35 36 34 33 33 32 33 31 34 31 26 25 24 24 24 23 22
41 40 41 40 37 33 26 23 29 28 25 31 29 32 34 32 35 32 30 28 29 22 29 29 23 27 34 34 33 33 32 30 28 28 27 26 25 25 24 23 23 22 22 21
38 34 31 31 28 24 24 15 25 25 28 32 32 30 32 32 31 29 28 25 24 29 29 25 26 30 31 31 30 29 29 28 27 26 25 25 24 24 23 22 22 22 20 20
30 25 21 18 10 18 23 25 28 28 30 32 28 30 30 31 29 28 24 22 28 27 23 24 28 28 28 29 29 27 26 26 26 25 24 23 23 22 22 21 21 19 18 19
23 23 16 19 24 24 25 27 27 27 30 32 30 32 30 29 28 28 26 26 23 24 16 21 26 27 27 26 25 25 24 24 23 23 22 21 21 20 19 20 20 19 18 17
21 18 18 20 20 18 21 21 23 27 27 31 32 29 27 25 24 26 21 20 16 13 18 22 25 24 24 24 24 24 23 23 22 22 21 20 19 18 18 19 19 19 18 16
19 17 20 19 17 17 18 19 21 26 27 28 27 22 19 25 19 17 19 14 18 19 20 22 23 23 22 23 23 22 22 21 21 21 20 20 20 19 17 15 16 17 16 15

GFSNW_sfc_dewp_093.txt.gz
Dewpoint
43 44 43 42 43 44 41 37 29 40 43 31 31 23 21 23 19 20 22 24 20 15 12 9 8 8 19 20 24 24 36 34 30 27 29 27 23 24 23 22 20 29 25 21
43 43 42 42 44 43 40 35 32 42 41 24 25 25 23 23 22 21 22 26 26 26 23 16 20 24 24 28 26 25 24 31 25 25 25 30 29 29 30 28 27 22 24 23
42 42 42 41 43 43 41 33 27 34 37 34 25 23 22 22 26 23 23 23 25 24 23 26 24 24 25 28 25 32 32 29 21 18 27 29 29 31 29 33 29 24 23 22
42 41 42 41 43 43 40 34 29 30 25 29 30 29 25 23 22 26 27 25 23 21 19 20 22 24 25 26 28 29 34 29 30 27 25 24 27 27 27 29 32 26 23 24
41 42 40 42 43 43 38 30 30 33 28 27 27 27 27 23 24 22 23 24 25 27 25 23 22 25 25 26 28 31 33 32 31 28 28 28 25 27 30 32 33 30 25 24
41 40 41 42 42 43 37 37 38 35 27 26 26 25 26 25 24 26 25 24 32 33 30 32 32 32 31 31 30 28 28 28 31 25 28 29 28 28 31 32 31 28 26 29
40 41 41 41 42 42 39 38 36 32 25 27 24 23 24 25 26 26 27 30 32 30 34 36 35 33 32 30 30 31 28 29 29 26 30 23 25 31 33 32 29 28 28 30
42 42 42 43 43 43 40 39 37 33 25 27 26 27 25 26 27 28 30 34 33 36 36 33 29 25 29 30 29 29 30 28 25 24 25 27 18 33 33 34 34 33 26 27
43 43 43 43 43 43 41 40 40 36 32 27 27 28 28 27 30 29 33 35 37 38 35 31 23 18 23 20 24 32 29 30 27 28 25 20 25 34 40 36 30 38 35 36
43 43 43 43 43 43 42 40 41 37 31 32 31 31 31 30 32 30 31 32 34 37 32 27 24 20 25 23 23 29 27 27 25 25 25 27 32 37 40 30 34 41 41 39
44 44 44 44 44 44 43 41 43 38 33 36 35 32 30 31 31 29 32 32 34 34 30 29 26 25 23 21 20 18 28 28 26 27 27 23 36 39 33 39 42 39 41 40
45 45 44 45 45 45 44 39 43 43 37 36 40 38 35 32 31 30 33 32 32 34 30 29 28 26 27 24 19 25 22 28 31 33 29 39 38 35 38 42 40 40 43 42
44 43 44 45 45 45 45 41 43 41 36 34 37 36 38 39 36 36 31 32 33 36 38 36 32 27 27 26 24 25 26 30 31 31 31 33 35 36 38 38 39 40 44 44
44 44 44 45 44 45 45 42 43 40 36 31 34 39 37 38 39 38 38 35 38 37 39 36 34 30 35 28 25 25 24 31 30 30 29 34 34 35 35 38 40 41 42 45
44 45 45 45 45 45 45 44 43 42 36 31 32 34 37 38 38 38 39 38 37 37 35 33 32 36 35 34 33 30 29 27 27 27 29 33 33 35 37 41 39 38 40 43
45 45 45 45 45 44 43 36 42 43 42 35 29 34 34 36 36 36 36 37 38 38 36 35 36 36 36 31 29 30 30 30 30 28 29 36 36 36 39 40 37 35 36 37
45 45 45 45 44 43 38 35 41 43 43 35 30 27 32 36 35 36 36 38 38 38 36 34 35 36 37 32 28 28 31 32 32 33 34 34 31 31 38 37 35 33 31 30
44 45 46 45 45 42 39 43 43 41 38 37 27 25 32 36 33 32 37 35 37 37 36 36 36 36 36 31 30 31 31 32 32 33 33 33 33 37 34 34 34 33 32 30
45 45 45 44 37 34 39 44 43 44 38 31 29 23 25 37 35 36 36 37 32 38 33 34 35 33 30 32 32 31 32 33 32 37 38 39 38 35 33 32 31 29 28 27
45 42 34 32 38 44 43 41 34 35 37 34 28 30 28 35 34 32 32 34 32 28 31 36 32 30 31 33 34 34 33 34 37 37 37 37 35 31 29 29 29 28 26 24
38 34 35 41 42 39 36 31 30 32 29 31 30 31 31 36 32 32 34 32 31 27 30 31 30 28 31 35 35 34 33 33 32 32 32 32 36 29 26 25 25 25 24 21
40 39 42 41 36 32 29 27 29 26 25 30 30 32 33 34 36 33 32 29 30 25 32 30 25 29 33 33 33 33 32 30 28 28 27 27 27 26 25 24 24 23 21 21
37 33 31 31 26 20 16 21 25 26 29 32 32 31 32 33 34 30 30 27 27 31 29 25 27 29 31 30 30 29 29 28 27 26 25 25 25 25 24 23 23 22 20 20
28 23 15 15 14 19 21 24 27 28 30 32 32 31 31 32 30 30 26 27 30 26 25 25 26 27 28 28 29 27 26 27 27 25 25 24 23 22 22 21 21 18 17 17
22 21 15 15 22 22 23 25 27 27 29 33 32 32 32 29 28 29 27 25 23 25 21 20 24 26 26 26 25 24 24 23 23 23 21 21 20 20 19 20 19 18 16 14
18 16 16 17 19 17 19 20 22 26 26 30 33 29 26 25 27 25 21 22 19 17 20 22 24 24 24 23 24 23 23 22 21 21 20 19 18 17 17 17 16 16 15 14
18 16 20 18 16 14 16 19 21 25 25 28 26 20 19 24 20 16 19 15 19 21 21 22 22 22 22 22 22 21 21 21 20 20 19 19 19 18 16 14 15 15 14 13

GFSNW_sfc_dewp_096.txt.gz
Dewpoint
42 43 43 43 43 44 43 39 31 42 42 33 29 21 16 20 13 16 13 13 15 11 8 6 1 1 1 7 14 12 24 26 23 24 27 29 30 23 19 19 17 23 22 19
42 41 41 43 43 42 42 36 31 42 42 25 23 21 20 20 18 16 11 11 13 12 11 6 7 10 16 21 27 25 24 26 21 22 26 30 28 28 30 30 28 24 25 22
38 42 41 43 42 42 43 37 30 34 37 34 24 20 19 19 22 21 19 18 19 18 19 19 16 20 24 28 25 34 29 23 19 14 20 22 24 26 27 28 29 25 23 22
39 43 42 42 43 43 43 36 29 27 27 29 32 24 22 18 18 22 22 21 20 16 13 14 16 19 21 22 27 28 26 23 20 20 18 16 17 17 19 25 26 27 27 26
39 40 42 44 42 43 39 33 32 31 22 23 25 26 24 21 20 21 20 22 20 23 23 18 19 26 25 25 26 29 31 24 28 25 24 23 20 17 18 19 23 24 25 27
40 40 41 41 43 43 37 38 36 32 23 22 23 21 24 21 22 24 23 23 24 23 26 32 37 35 33 31 28 28 28 27 26 21 24 26 25 24 21 18 20 28 29 29
40 41 41 43 42 42 40 39 33 32 24 22 17 19 20 21 22 24 23 24 26 26 36 37 35 34 34 32 31 30 28 27 27 24 26 22 20 26 25 24 28 30 32 31
40 41 41 42 42 42 43 38 38 32 25 19 20 22 22 22 23 24 24 24 27 38 37 33 29 30 29 28 29 29 29 27 25 23 18 17 18 20 30 31 27 32 37 32
42 42 42 42 42 42 43 42 41 37 30 23 20 21 23 23 23 25 27 29 34 38 35 33 24 20 18 16 24 30 27 30 27 24 19 15 13 29 35 32 25 39 38 40
42 43 43 43 43 42 43 41 43 39 31 27 33 32 27 25 25 28 29 31 34 38 33 29 26 22 18 20 21 29 30 31 27 25 24 19 20 29 37 28 30 38 40 39
43 43 43 43 43 43 43 40 44 38 33 31 28 28 29 35 33 30 35 32 32 34 30 29 25 24 20 19 18 25 28 29 27 27 27 22 30 38 36 39 40 39 40 40
42 43 43 44 44 44 44 38 43 43 36 33 35 33 34 33 29 32 33 30 31 34 31 31 29 27 28 21 19 18 19 21 24 28 27 29 31 38 40 40 38 36 42 43
43 44 44 44 44 44 44 41 42 40 36 35 36 33 39 38 37 37 33 32 31 33 37 37 34 28 26 25 22 22 21 24 27 29 25 32 35 38 39 36 35 41 41 42
43 43 43 44 45 45 45 42 42 41 36 31 34 37 36 37 38 36 37 34 34 35 38 37 35 32 33 26 26 26 24 24 23 24 24 26 27 31 31 31 38 40 41 44
44 44 44 43 43 44 45 44 43 42 35 33 31 36 37 36 36 37 36 36 36 38 36 35 33 32 32 31 31 28 27 25 24 24 26 27 26 28 32 32 37 39 41 45
44 44 44 44 44 44 43 34 43 43 42 36 31 33 33 38 37 37 35 36 38 38 36 37 38 37 35 32 26 25 26 27 28 28 29 30 31 32 33 36 37 38 39 42
45 45 45 45 44 44 38 37 41 43 42 36 32 30 34 35 37 36 36 37 38 38 36 36 36 33 35 32 28 25 26 27 27 27 28 30 31 30 34 36 36 35 34 36
45 45 45 44 44 43 40 44 43 42 39 38 32 30 33 36 33 34 37 35 37 38 37 38 37 36 37 33 29 28 28 28 28 29 31 31 32 31 34 36 38 35 33 33
45 45 45 44 38 37 40 44 43 45 39 33 33 30 29 38 33 33 35 34 32 35 34 33 33 31 28 25 25 25 27 29 30 30 33 33 33 37 36 35 36 34 31 30
45 40 34 32 36 44 44 40 35 36 38 37 33 33 31 34 34 35 35 35 30 28 30 33 34 29 27 27 27 29 33 34 34 33 33 31 36 36 34 34 33 32 28 26
38 33 35 41 43 40 36 32 33 34 31 35 31 32 32 37 33 33 35 32 32 26 27 29 26 24 27 28 30 34 34 34 34 35 35 35 36 37 32 31 31 29 26 24
39 40 42 41 36 34 32 31 32 28 25 30 30 31 33 34 38 36 34 32 32 28 34 31 24 31 31 33 33 33 33 32 31 31 31 31 31 33 30 29 27 25 23 23
38 36 33 34 32 29 26 22 25 27 30 32 34 33 34 35 37 35 33 30 29 34 31 26 28 28 29 29 29 29 29 29 28 28 28 28 28 29 28 25 24 23 22 21
30 32 22 27 25 25 27 28 29 31 33 33 33 33 34 35 33 34 29 32 32 29 26 25 25 25 26 27 28 26 25 27 27 26 26 26 26 25 24 24 22 20 19 20
26 25 20 21 24 25 26 29 30 29 30 34 34 34 34 32 31 32 30 28 27 26 24 24 25 25 25 25 26 26 24 24 23 23 22 22 22 21 20 21 21 19 18 17
21 20 21 24 25 24 25 26 28 28 27 32 35 32 29 28 31 27 25 26 21 22 23 24 24 25 25 24 24 24 24 22 21 20 20 20 18 16 16 17 16 16 16 15
20 20 22 22 22 21 23 24 25 27 28 32 33 28 24 28 24 19 21 20 21 23 24 24 24 24 24 24 23 23 22 22 21 21 20 19 19 19 18 15 16 16 15 14

GFSNW_sfc_dewp_099.txt.gz
Dewpoint
41 42 42 41 43 43 41 40 34 41 39 32 27 23 16 19 9 10 12 9 8 8 7 7 7 4 2 1 5 6 17 24 24 21 21 25 26 17 18 21 18 18 22 21
41 41 42 41 42 43 42 35 34 41 41 27 25 22 17 15 15 11 9 10 9 10 10 8 9 8 7 2 14 21 26 19 17 18 19 23 25 25 23 21 21 18 22 21
40 41 40 42 43 43 43 37 32 37 39 34 27 24 20 16 18 18 17 14 14 12 11 12 12 11 13 20 22 33 29 22 18 16 17 25 24 25 27 27 26 23 20 17
40 41 40 40 42 42 41 36 32 30 30 30 30 25 23 16 14 19 19 17 16 15 13 13 12 15 15 16 23 23 26 23 18 15 14 14 17 17 17 19 22 25 25 22
40 39 41 42 43 42 39 34 32 28 25 24 23 25 23 23 15 18 18 18 16 20 15 12 11 11 16 19 17 18 22 25 21 17 16 15 15 14 13 12 15 18 21 22
40 41 41 41 43 42 37 38 31 33 29 25 23 23 20 19 18 21 21 21 24 22 21 27 31 34 32 31 33 29 32 27 22 21 16 15 20 17 12 9 8 11 16 21
40 40 41 42 41 42 41 38 33 33 27 24 21 18 21 20 21 21 23 22 23 23 33 35 34 33 31 30 30 29 29 27 28 23 23 19 18 18 20 21 19 13 9 10
40 41 41 41 42 42 42 40 39 36 29 20 18 20 21 20 21 20 21 23 24 35 34 33 28 26 26 27 29 27 27 27 28 23 18 15 13 15 20 23 25 25 27 30
42 41 41 41 42 42 41 42 41 37 33 24 19 18 19 20 20 23 24 25 28 35 35 33 23 21 21 22 25 26 26 29 28 25 19 16 15 27 34 33 30 37 37 38
42 42 42 42 42 43 41 36 42 39 32 28 26 28 24 22 21 27 27 30 32 37 32 29 24 23 22 18 20 29 28 31 27 25 25 22 19 18 30 28 33 39 37 36
42 42 43 43 43 43 43 38 42 39 33 30 28 26 32 33 35 30 33 34 34 36 31 28 24 27 22 21 20 29 30 30 29 26 28 24 23 26 30 38 40 39 36 37
42 42 43 43 43 43 43 39 41 43 37 31 34 31 30 29 29 34 32 32 29 36 33 29 32 29 29 23 23 20 27 26 28 28 27 26 27 35 38 41 39 40 38 39
43 42 43 43 43 43 44 41 42 42 37 35 34 30 32 36 33 35 31 31 32 32 39 37 35 32 28 27 23 23 25 23 23 25 24 26 28 34 32 38 38 39 38 39
43 43 43 43 43 44 44 41 43 42 36 31 29 35 33 32 35 37 35 33 35 37 38 37 35 30 29 28 29 26 25 29 28 25 24 25 24 29 35 37 33 31 37 42
43 43 43 44 44 44 44 43 43 41 35 33 32 33 35 34 34 32 35 38 37 38 36 35 34 31 31 30 29 27 25 25 26 25 28 28 28 28 30 30 31 35 38 45
43 43 43 43 44 45 43 36 43 43 41 36 30 34 33 35 36 35 36 36 38 39 36 37 34 32 34 32 25 24 25 26 27 25 26 26 27 28 30 30 34 36 39 41
43 44 44 44 44 43 36 38 40 43 43 34 33 28 32 34 35 36 37 37 37 38 36 36 34 31 35 34 29 27 26 25 25 26 27 27 27 28 30 30 34 37 37 36
44 44 44 44 44 43 39 44 43 43 38 37 33 31 34 36 34 34 36 35 36 38 37 38 35 33 33 30 25 24 24 26 26 26 27 28 30 29 28 30 36 36 35 33
45 45 45 44 40 37 40 44 44 44 39 34 35 32 30 35 33 34 34 35 33 35 34 32 31 31 28 25 24 23 24 26 26 29 31 30 31 30 33 35 36 37 33 30
46 41 34 32 38 45 43 39 35 37 38 38 32 32 33 35 36 34 35 35 30 29 30 29 31 29 27 25 25 25 26 27 31 32 30 31 34 33 36 35 36 36 32 29
38 34 35 40 43 40 37 32 33 35 32 35 30 30 32 36 34 34 35 34 33 27 25 27 26 23 29 28 28 29 35 34 34 34 34 34 35 35 35 34 35 32 28 25
38 41 42 41 37 35 33 32 34 30 24 31 31 31 33 36 38 36 35 30 34 26 32 30 24 30 30 31 32 32 33 32 32 32 32 33 32 34 35 34 32 28 25 24
39 37 35 35 34 30 29 25 26 29 31 33 35 34 37 37 36 37 34 31 28 34 30 25 28 27 27 28 28 29 29 31 30 29 29 30 31 32 33 29 27 25 24 22
34 33 27 31 28 29 30 28 30 34 36 34 34 34 33 36 34 35 28 33 33 27 25 20 26 26 26 28 29 27 26 27 29 27 27 27 27 26 27 26 25 23 21 21
30 30 24 24 27 28 29 32 33 32 34 35 34 34 35 34 32 33 33 30 27 29 26 26 26 26 25 25 26 26 26 26 25 25 24 24 23 22 22 23 22 20 19 18
25 25 25 28 27 28 29 30 30 30 31 35 35 33 31 31 32 30 28 27 24 23 25 25 24 25 25 24 25 25 25 24 24 23 22 20 18 18 18 18 18 18 17 16
24 22 26 27 26 26 27 28 27 30 31 32 34 31 28 31 29 24 23 23 23 24 24 25 25 25 25 25 24 24 23 23 22 21 20 19 19 19 17 15 16 17 16 16

GFSNW_sfc_dewp_102.txt.gz
Dewpoint
40 41 41 42 42 42 41 38 32 40 44 35 31 24 20 22 13 10 7 10 8 7 6 5 5 4 6 2 5 3 7 12 18 15 24 25 29 20 18 19 18 23 23 21
40 41 41 41 42 42 41 35 32 43 42 29 27 23 19 18 15 11 10 10 10 10 7 7 8 9 11 7 7 5 22 19 14 11 10 14 19 23 24 21 22 21 23 23
40 40 41 42 41 42 42 35 30 35 38 34 27 29 23 14 16 14 13 12 12 11 10 9 9 9 10 13 11 34 27 22 22 16 12 21 24 23 24 24 30 23 19 17
40 39 40 41 41 41 40 33 31 27 28 30 27 25 28 27 18 17 16 14 14 13 12 11 10 11 11 12 24 23 23 18 17 15 13 11 13 16 19 20 22 27 27 24
40 40 40 41 41 42 37 33 34 30 28 32 29 25 22 20 19 16 23 15 12 15 13 12 10 11 14 14 15 16 20 16 15 15 14 12 10 10 15 16 16 15 17 18
39 40 39 41 41 42 37 38 37 35 28 24 23 22 27 18 16 22 21 21 27 25 21 28 30 31 29 28 28 29 29 23 16 16 17 14 14 11 11 13 14 15 14 17
39 41 41 42 42 42 40 38 36 34 26 22 20 26 22 23 21 20 21 25 24 24 30 31 29 27 26 24 24 26 27 31 27 23 22 17 18 13 14 16 14 12 14 12
40 41 41 41 41 42 42 41 40 34 27 21 20 21 19 19 22 27 28 23 25 36 32 28 21 22 23 24 24 23 26 26 26 22 18 17 13 14 23 32 29 38 38 38
41 41 41 41 41 42 43 40 43 38 34 24 23 23 23 23 22 20 20 20 33 37 31 29 20 18 23 27 19 23 23 27 26 25 18 14 14 23 24 25 26 39 37 39
41 41 41 42 41 42 43 38 43 40 32 27 26 27 29 28 26 26 31 32 30 34 31 26 22 20 21 22 21 29 25 27 25 26 25 22 18 20 24 21 30 40 38 36
41 41 41 42 42 41 42 37 42 41 33 30 29 27 27 32 31 28 35 32 31 35 29 27 23 24 23 23 21 32 28 28 27 26 24 21 27 28 29 36 34 37 38 38
41 41 42 42 42 42 42 34 38 43 37 30 34 32 30 28 31 33 33 33 32 34 33 32 33 29 30 28 24 29 30 26 28 26 26 31 31 32 37 36 36 36 37 37
41 42 41 43 43 42 42 36 37 40 36 35 33 29 30 31 34 35 30 29 27 29 39 36 35 29 32 30 27 31 29 33 30 32 31 34 33 30 32 33 33 33 34 36
42 42 42 43 43 43 43 41 42 41 37 30 27 28 32 33 33 32 35 35 34 34 37 35 34 30 30 31 32 32 31 27 26 27 31 31 32 32 33 32 31 34 34 38
43 43 43 43 43 43 44 45 44 43 34 29 30 34 34 30 33 32 33 35 36 36 35 34 33 30 32 32 30 28 25 24 25 30 34 32 34 31 29 31 31 36 37 42
43 43 43 44 44 43 43 36 42 44 41 35 27 31 33 35 34 34 33 33 35 38 35 36 34 33 33 30 24 24 26 31 30 28 29 27 29 28 27 29 36 36 39 38
44 43 43 43 44 43 37 36 41 43 43 33 30 27 30 33 35 37 36 36 37 38 36 35 33 31 34 35 28 26 27 26 25 26 27 27 27 30 31 29 36 38 35 34
44 43 43 43 43 43 39 43 43 43 37 35 32 31 31 34 35 34 36 36 37 37 37 36 35 32 34 30 27 25 24 23 24 26 26 31 31 33 28 31 36 36 33 31
45 44 43 43 41 35 39 44 43 44 39 33 32 29 28 35 35 36 35 36 33 37 34 32 30 29 28 26 24 25 25 25 24 24 29 30 29 36 33 34 34 36 32 29
45 42 33 31 36 44 43 39 36 35 36 38 33 32 33 34 36 36 36 36 31 29 30 29 32 28 27 26 27 27 27 28 32 31 31 33 32 32 36 35 36 36 31 28
36 33 35 40 42 40 36 32 32 33 31 34 32 31 32 35 35 34 35 33 33 26 25 28 26 25 32 32 33 33 33 33 33 33 33 33 34 33 34 35 34 31 29 25
39 40 42 41 37 34 32 31 32 30 25 31 32 32 34 37 38 35 34 30 32 25 35 32 24 29 28 29 29 30 30 31 31 31 31 31 32 33 35 34 30 27 25 23
39 38 34 35 33 29 26 24 26 28 33 34 35 34 36 37 37 34 33 28 26 32 31 24 27 26 26 27 28 27 28 28 28 28 29 29 29 29 29 27 26 25 23 21
36 33 29 31 28 29 29 29 31 36 37 36 36 35 34 37 34 33 26 31 32 25 24 23 25 25 25 25 25 25 25 25 25 25 25 25 25 25 25 25 24 21 20 20
31 32 25 25 28 30 32 34 34 34 36 36 35 34 34 34 32 32 30 29 25 26 23 25 26 26 24 23 24 24 24 25 23 24 23 22 23 21 21 22 22 20 18 18
25 27 26 30 29 29 30 32 30 32 33 36 35 32 30 30 31 29 26 24 21 22 25 26 24 25 25 24 24 24 24 24 23 21 20 19 18 18 18 18 18 18 17 16
24 24 28 29 28 27 28 29 28 31 32 32 33 30 29 32 28 25 24 21 23 23 25 24 25 25 25 25 24 24 24 23 21 20 19 18 19 19 17 16 17 17 16 16